| time (UTC) | temp C | wind direction | speed KPH | gust KPH | rain 1hr cm | rain 24hr cm | rain mn cm | humidity % | barometer mb |
| 20260505201634 | 27 | 360 | 9.7 | 27.4 | 0.00 | 0.00 | 0.00 | 71 | 1008.2 |
| 20260505201534 | 27 | 360 | 11.3 | 30.6 | 0.00 | 0.00 | 0.00 | 72 | 1008.2 |
| 20260505201436 | 27 | 360 | 11.3 | 30.6 | 0.00 | 0.00 | 0.00 | 72 | 1008.2 |
| 20260505201335 | 27 | 360 | 12.9 | 30.6 | 0.00 | 0.00 | 0.00 | 72 | 1008.3 |
| 20260505201220 | 27 | 360 | 16.1 | 30.6 | 0.00 | 0.00 | 0.00 | 73 | 1008.3 |
| 20260505201121 | 27 | 360 | 17.7 | 30.6 | 0.00 | 0.00 | 0.00 | 72 | 1008.3 |
| 20260505201042 | 27 | 360 | 17.7 | 30.6 | 0.00 | 0.00 | 0.00 | 72 | 1008.4 |
| 20260505200921 | 27 | 360 | 19.3 | 30.6 | 0.00 | 0.00 | 0.00 | 72 | 1008.3 |
| 20260505200822 | 27 | 360 | 20.9 | 30.6 | 0.00 | 0.00 | 0.00 | 72 | 1008.3 |
| 20260505200722 | 27 | 360 | 19.3 | 30.6 | 0.00 | 0.00 | 0.00 | 72 | 1008.3 |
| 20260505200643 | 27 | 360 | 16.1 | 30.6 | 0.00 | 0.00 | 0.00 | 72 | 1008.3 |
| 20260505200527 | 27 | 360 | 12.9 | 29.0 | 0.00 | 0.00 | 0.00 | 71 | 1008.3 |
| 20260505200428 | 28 | 360 | 9.7 | 30.6 | 0.00 | 0.00 | 0.00 | 71 | 1008.4 |
| 20260505200328 | 28 | 360 | 9.7 | 30.6 | 0.00 | 0.00 | 0.00 | 71 | 1008.3 |
| 20260505200229 | 28 | 360 | 8.0 | 30.6 | 0.00 | 0.00 | 0.00 | 71 | 1008.3 |
| 20260505200129 | 28 | 360 | 9.7 | 30.6 | 0.00 | 0.00 | 0.00 | 71 | 1008.3 |
| 20260505200029 | 27 | 360 | 11.3 | 30.6 | 0.00 | 0.00 | 0.00 | 71 | 1008.4 |
| 20260505195931 | 27 | 360 | 12.9 | 30.6 | 0.00 | 0.00 | 0.00 | 70 | 1008.4 |
| 20260505195835 | 27 | 360 | 11.3 | 30.6 | 0.00 | 0.00 | 0.00 | 70 | 1008.4 |
| 20260505195736 | 27 | 360 | 11.3 | 30.6 | 0.00 | 0.00 | 0.00 | 70 | 1008.4 |
| 20260505195617 | 28 | 360 | 11.3 | 30.6 | 0.00 | 0.00 | 0.00 | 70 | 1008.3 |
| 20260505195517 | 28 | 360 | 11.3 | 30.6 | 0.00 | 0.00 | 0.00 | 70 | 1008.4 |
| 20260505195418 | 28 | 360 | 12.9 | 29.0 | 0.00 | 0.00 | 0.00 | 71 | 1008.3 |
| 20260505195319 | 28 | 360 | 12.9 | 27.4 | 0.00 | 0.00 | 0.00 | 71 | 1008.4 |
| 20260505195243 | 27 | 360 | 14.5 | 27.4 | 0.00 | 0.00 | 0.00 | 72 | 1008.5 |
| 20260505195123 | 27 | 360 | 14.5 | 27.4 | 0.00 | 0.00 | 0.00 | 72 | 1008.4 |
| 20260505195022 | 27 | 360 | 14.5 | 29.0 | 0.00 | 0.00 | 0.00 | 72 | 1008.5 |
| 20260505194924 | 27 | 360 | 14.5 | 29.0 | 0.00 | 0.00 | 0.00 | 72 | 1008.5 |
| 20260505194825 | 27 | 360 | 16.1 | 29.0 | 0.00 | 0.00 | 0.00 | 72 | 1008.4 |
| 20260505194725 | 27 | 360 | 14.5 | 29.0 | 0.00 | 0.00 | 0.00 | 72 | 1008.4 |
| 20260505194626 | 27 | 360 | 14.5 | 29.0 | 0.00 | 0.00 | 0.00 | 73 | 1008.4 |
| 20260505194530 | 27 | 360 | 14.5 | 29.0 | 0.00 | 0.00 | 0.00 | 72 | 1008.4 |
| 20260505194431 | 27 | 360 | 16.1 | 29.0 | 0.00 | 0.00 | 0.00 | 72 | 1008.5 |
| 20260505194353 | 27 | 360 | 16.1 | 29.0 | 0.00 | 0.00 | 0.00 | 72 | 1008.6 |
| 20260505194232 | 27 | 360 | 14.5 | 29.0 | 0.00 | 0.00 | 0.00 | 72 | 1008.6 |
| 20260505194133 | 27 | 360 | 14.5 | 29.0 | 0.00 | 0.00 | 0.00 | 71 | 1008.5 |
| 20260505194033 | 27 | 360 | 12.9 | 24.1 | 0.00 | 0.00 | 0.00 | 71 | 1008.6 |
| 20260505193918 | 27 | 360 | 9.7 | 22.5 | 0.00 | 0.00 | 0.00 | 71 | 1008.6 |
| 20260505193819 | 27 | 360 | 11.3 | 22.5 | 0.00 | 0.00 | 0.00 | 71 | 1008.6 |
| 20260505193719 | 27 | 360 | 11.3 | 22.5 | 0.00 | 0.00 | 0.00 | 73 | 1008.6 |
| 20260505193619 | 27 | 360 | 9.7 | 22.5 | 0.00 | 0.00 | 0.00 | 73 | 1008.6 |
| 20260505193519 | 27 | 360 | 11.3 | 22.5 | 0.00 | 0.00 | 0.00 | 73 | 1008.5 |
| 20260505193418 | 27 | 360 | 14.5 | 22.5 | 0.00 | 0.00 | 0.00 | 73 | 1008.6 |
| 20260505193339 | 27 | 360 | 12.9 | 30.6 | 0.00 | 0.00 | 0.00 | 73 | 1008.7 |
| 20260505193218 | 27 | 360 | 12.9 | 30.6 | 0.00 | 0.00 | 0.00 | 73 | 1008.6 |
| 20260505193139 | 27 | 360 | 11.3 | 30.6 | 0.00 | 0.00 | 0.00 | 72 | 1008.6 |
| 20260505193041 | 27 | 360 | 11.3 | 30.6 | 0.00 | 0.00 | 0.00 | 72 | 1008.6 |
| 20260505192921 | 27 | 360 | 9.7 | 30.6 | 0.00 | 0.00 | 0.00 | 73 | 1008.7 |
| 20260505192822 | 27 | 360 | 8.0 | 33.8 | 0.00 | 0.00 | 0.00 | 72 | 1008.7 |
| 20260505192722 | 27 | 360 | 11.3 | 33.8 | 0.00 | 0.00 | 0.00 | 72 | 1008.7 |
| 20260505192621 | 27 | 360 | 11.3 | 33.8 | 0.00 | 0.00 | 0.00 | 72 | 1008.7 |
| 20260505192543 | 27 | 360 | 11.3 | 33.8 | 0.00 | 0.00 | 0.00 | 73 | 1008.7 |
| 20260505192416 | 27 | 360 | 12.9 | 35.4 | 0.00 | 0.00 | 0.00 | 73 | 1008.7 |
| 20260505192320 | 27 | 360 | 14.5 | 35.4 | 0.00 | 0.00 | 0.00 | 73 | 1008.7 |
| 20260505192220 | 27 | 360 | 16.1 | 35.4 | 0.00 | 0.00 | 0.00 | 73 | 1008.7 |
| 20260505192122 | 27 | 360 | 14.5 | 35.4 | 0.00 | 0.00 | 0.00 | 73 | 1008.6 |
| 20260505192023 | 27 | 360 | 14.5 | 35.4 | 0.00 | 0.00 | 0.00 | 73 | 1008.6 |
| 20260505191924 | 27 | 360 | 12.9 | 35.4 | 0.00 | 0.00 | 0.00 | 73 | 1008.6 |
| 20260505191824 | 27 | 360 | 12.9 | 35.4 | 0.00 | 0.00 | 0.00 | 73 | 1008.7 |
| 20260505191728 | 27 | 360 | 12.9 | 35.4 | 0.00 | 0.00 | 0.00 | 73 | 1008.7 |
| 20260505191628 | 27 | 360 | 16.1 | 35.4 | 0.00 | 0.00 | 0.00 | 73 | 1008.6 |
| 20260505191529 | 27 | 360 | 16.1 | 35.4 | 0.00 | 0.00 | 0.00 | 73 | 1008.7 |
| 20260505191449 | 27 | 360 | 17.7 | 35.4 | 0.00 | 0.00 | 0.00 | 73 | 1008.7 |
| 20260505191330 | 27 | 360 | 19.3 | 35.4 | 0.00 | 0.00 | 0.00 | 73 | 1008.7 |
| 20260505191231 | 27 | 360 | 16.1 | 35.4 | 0.00 | 0.00 | 0.00 | 74 | 1008.7 |
| 20260505191132 | 27 | 360 | 16.1 | 29.0 | 0.00 | 0.00 | 0.00 | 73 | 1008.7 |
| 20260505191016 | 27 | 360 | 12.9 | 29.0 | 0.00 | 0.00 | 0.00 | 73 | 1008.7 |
| 20260505190917 | 27 | 360 | 12.9 | 29.0 | 0.00 | 0.00 | 0.00 | 74 | 1008.6 |
| 20260505190817 | 27 | 360 | 12.9 | 29.0 | 0.00 | 0.00 | 0.00 | 74 | 1008.7 |
| 20260505190717 | 27 | 360 | 12.9 | 29.0 | 0.00 | 0.00 | 0.00 | 74 | 1008.6 |
| 20260505190618 | 27 | 360 | 14.5 | 29.0 | 0.00 | 0.00 | 0.00 | 73 | 1008.6 |
| 20260505190539 | 27 | 360 | 9.7 | 25.7 | 0.00 | 0.00 | 0.00 | 73 | 1008.7 |
| 20260505190418 | 27 | 360 | 9.7 | 29.0 | 0.00 | 0.00 | 0.00 | 73 | 1008.7 |
| 20260505190343 | 27 | 360 | 8.0 | 29.0 | 0.00 | 0.00 | 0.00 | 73 | 1008.7 |
| 20260505190216 | 27 | 360 | 8.0 | 29.0 | 0.00 | 0.00 | 0.00 | 73 | 1008.8 |
| 20260505190118 | 27 | 360 | 6.4 | 29.0 | 0.00 | 0.00 | 0.00 | 75 | 1008.8 |
| 20260505190019 | 27 | 360 | 8.0 | 29.0 | 0.00 | 0.00 | 0.00 | 75 | 1008.9 |
| 20260505185919 | 26 | 360 | 9.7 | 29.0 | 0.00 | 0.00 | 0.00 | 75 | 1008.8 |
| 20260505185840 | 26 | 360 | 9.7 | 29.0 | 0.00 | 0.00 | 0.00 | 75 | 1008.8 |
| 20260505185739 | 26 | 360 | 11.3 | 29.0 | 0.00 | 0.00 | 0.00 | 75 | 1008.8 |
| 20260505185622 | 26 | 360 | 12.9 | 29.0 | 0.00 | 0.00 | 0.00 | 75 | 1008.9 |
| 20260505185522 | 26 | 360 | 12.9 | 29.0 | 0.00 | 0.00 | 0.00 | 75 | 1008.9 |
| 20260505185423 | 26 | 360 | 14.5 | 29.0 | 0.00 | 0.00 | 0.00 | 75 | 1009.0 |
| 20260505185323 | 26 | 360 | 14.5 | 29.0 | 0.00 | 0.00 | 0.00 | 74 | 1008.9 |
| 20260505185243 | 26 | 360 | 12.9 | 29.0 | 0.00 | 0.00 | 0.00 | 74 | 1008.9 |
| 20260505185123 | 26 | 360 | 11.3 | 29.0 | 0.00 | 0.00 | 0.00 | 74 | 1008.9 |
| 20260505185023 | 26 | 360 | 11.3 | 29.0 | 0.00 | 0.00 | 0.00 | 73 | 1009.0 |
| 20260505184928 | 27 | 360 | 11.3 | 29.0 | 0.00 | 0.00 | 0.00 | 73 | 1009.0 |
| 20260505184848 | 27 | 360 | 11.3 | 29.0 | 0.00 | 0.00 | 0.00 | 74 | 1009.0 |
| 20260505184748 | 27 | 360 | 9.7 | 20.9 | 0.00 | 0.00 | 0.00 | 74 | 1009.0 |
| 20260505184627 | 27 | 360 | 8.0 | 20.9 | 0.00 | 0.00 | 0.00 | 74 | 1008.9 |
| 20260505184527 | 27 | 360 | 9.7 | 19.3 | 0.00 | 0.00 | 0.00 | 74 | 1009.0 |
| 20260505184428 | 27 | 360 | 9.7 | 19.3 | 0.00 | 0.00 | 0.00 | 75 | 1009.0 |
| 20260505184348 | 27 | 360 | 8.0 | 19.3 | 0.00 | 0.00 | 0.00 | 75 | 1009.0 |
| 20260505184227 | 27 | 360 | 6.4 | 19.3 | 0.00 | 0.00 | 0.00 | 74 | 1009.1 |
| 20260505184132 | 27 | 360 | 6.4 | 19.3 | 0.00 | 0.00 | 0.00 | 73 | 1009.0 |
| 20260505184032 | 27 | 360 | 6.4 | 19.3 | 0.00 | 0.00 | 0.00 | 73 | 1009.0 |
| 20260505183933 | 27 | 360 | 6.4 | 19.3 | 0.00 | 0.00 | 0.00 | 74 | 1009.1 |
| 20260505183833 | 27 | 360 | 6.4 | 19.3 | 0.00 | 0.00 | 0.00 | 74 | 1009.1 |
| 20260505183734 | 26 | 360 | 6.4 | 19.3 | 0.00 | 0.00 | 0.00 | 73 | 1009.1 |
| 20260505183654 | 26 | 360 | 8.0 | 19.3 | 0.00 | 0.00 | 0.00 | 74 | 1009.2 |
| 20260505183534 | 26 | 360 | 8.0 | 19.3 | 0.00 | 0.00 | 0.00 | 74 | 1009.1 |
| 20260505183439 | 26 | 360 | 8.0 | 19.3 | 0.00 | 0.00 | 0.00 | 74 | 1009.2 |
| 20260505183318 | 26 | 360 | 8.0 | 20.9 | 0.00 | 0.00 | 0.00 | 74 | 1009.2 |
| 20260505183219 | 26 | 360 | 8.0 | 20.9 | 0.00 | 0.00 | 0.00 | 74 | 1009.2 |
| 20260505183119 | 26 | 360 | 8.0 | 20.9 | 0.00 | 0.00 | 0.00 | 75 | 1009.3 |
| 20260505183020 | 26 | 360 | 8.0 | 20.9 | 0.00 | 0.00 | 0.00 | 75 | 1009.2 |
| 20260505182920 | 26 | 360 | 6.4 | 20.9 | 0.00 | 0.00 | 0.00 | 74 | 1009.3 |
| 20260505182822 | 26 | 360 | 8.0 | 20.9 | 0.00 | 0.00 | 0.00 | 74 | 1009.2 |
| 20260505182725 | 26 | 360 | 8.0 | 20.9 | 0.00 | 0.00 | 0.00 | 75 | 1009.2 |
| 20260505182625 | 26 | 360 | 8.0 | 20.9 | 0.00 | 0.00 | 0.00 | 75 | 1009.2 |
| 20260505182546 | 26 | 360 | 8.0 | 20.9 | 0.00 | 0.00 | 0.00 | 75 | 1009.4 |
| 20260505182425 | 26 | 360 | 8.0 | 20.9 | 0.00 | 0.00 | 0.00 | 75 | 1009.4 |
| 20260505182327 | 26 | 360 | 6.4 | 19.3 | 0.00 | 0.00 | 0.00 | 75 | 1009.4 |
| 20260505182246 | 26 | 360 | 4.8 | 19.3 | 0.00 | 0.00 | 0.00 | 75 | 1009.4 |
| 20260505182125 | 26 | 360 | 6.4 | 19.3 | 0.00 | 0.00 | 0.00 | 75 | 1009.4 |
| 20260505182029 | 26 | 360 | 4.8 | 19.3 | 0.00 | 0.00 | 0.00 | 75 | 1009.4 |
| 20260505181931 | 26 | 360 | 6.4 | 19.3 | 0.00 | 0.00 | 0.00 | 75 | 1009.5 |
| 20260505181830 | 26 | 360 | 6.4 | 20.9 | 0.00 | 0.00 | 0.00 | 75 | 1009.4 |
| 20260505181728 | 26 | 360 | 6.4 | 20.9 | 0.00 | 0.00 | 0.00 | 75 | 1009.5 |
| 20260505181648 | 26 | 360 | 8.0 | 20.9 | 0.00 | 0.00 | 0.00 | 75 | 1009.5 |
| 20260505181525 | 26 | 360 | 8.0 | 20.9 | 0.00 | 0.00 | 0.00 | 75 | 1009.5 |
| 20260505181425 | 26 | 360 | 8.0 | 22.5 | 0.00 | 0.00 | 0.00 | 75 | 1009.5 |
| 20260505181330 | 26 | 360 | 8.0 | 22.5 | 0.00 | 0.00 | 0.00 | 75 | 1009.5 |
| 20260505181252 | 26 | 360 | 9.7 | 22.5 | 0.00 | 0.00 | 0.00 | 75 | 1009.5 |
| 20260505181131 | 26 | 360 | 8.0 | 22.5 | 0.00 | 0.00 | 0.00 | 75 | 1009.5 |
| 20260505181031 | 26 | 360 | 8.0 | 22.5 | 0.00 | 0.00 | 0.00 | 76 | 1009.5 |
| 20260505180931 | 26 | 360 | 6.4 | 22.5 | 0.00 | 0.00 | 0.00 | 76 | 1009.4 |
| 20260505180831 | 26 | 360 | 6.4 | 22.5 | 0.00 | 0.00 | 0.00 | 76 | 1009.5 |
| 20260505180733 | 26 | 360 | 6.4 | 22.5 | 0.00 | 0.00 | 0.00 | 76 | 1009.4 |
| 20260505180617 | 26 | 360 | 4.8 | 22.5 | 0.00 | 0.00 | 0.00 | 77 | 1009.6 |
| 20260505180518 | 26 | 360 | 4.8 | 22.5 | 0.00 | 0.00 | 0.00 | 77 | 1009.6 |
| 20260505180417 | 25 | 360 | 6.4 | 22.5 | 0.00 | 0.00 | 0.00 | 77 | 1009.5 |
| 20260505180318 | 25 | 360 | 8.0 | 22.5 | 0.00 | 0.00 | 0.00 | 77 | 1009.6 |
| 20260505180218 | 25 | 360 | 8.0 | 22.5 | 0.00 | 0.00 | 0.00 | 77 | 1009.6 |
| 20260505180120 | 25 | 360 | 8.0 | 22.5 | 0.00 | 0.00 | 0.00 | 77 | 1009.6 |
| 20260505180020 | 25 | 360 | 8.0 | 22.5 | 0.00 | 0.00 | 0.00 | 77 | 1009.6 |
| 20260505175924 | 25 | 360 | 8.0 | 22.5 | 0.00 | 0.00 | 0.00 | 77 | 1009.6 |
| 20260505175826 | 25 | 360 | 8.0 | 22.5 | 0.00 | 0.00 | 0.00 | 77 | 1009.6 |
| 20260505175725 | 25 | 360 | 8.0 | 20.9 | 0.00 | 0.00 | 0.00 | 77 | 1009.7 |
| 20260505175625 | 25 | 360 | 8.0 | 19.3 | 0.00 | 0.00 | 0.00 | 77 | 1009.7 |
| 20260505175525 | 25 | 360 | 6.4 | 19.3 | 0.00 | 0.00 | 0.00 | 77 | 1009.7 |
| 20260505175427 | 25 | 360 | 8.0 | 19.3 | 0.00 | 0.00 | 0.00 | 77 | 1009.7 |
| 20260505175330 | 25 | 360 | 8.0 | 22.5 | 0.00 | 0.00 | 0.00 | 78 | 1009.7 |
| 20260505175231 | 25 | 360 | 8.0 | 22.5 | 0.00 | 0.00 | 0.00 | 79 | 1009.7 |
| 20260505175152 | 25 | 360 | 8.0 | 22.5 | 0.00 | 0.00 | 0.00 | 77 | 1009.8 |
| 20260505175032 | 25 | 360 | 8.0 | 22.5 | 0.00 | 0.00 | 0.00 | 77 | 1009.7 |
| 20260505174932 | 25 | 360 | 8.0 | 22.5 | 0.00 | 0.00 | 0.00 | 78 | 1009.8 |
| 20260505174833 | 25 | 360 | 8.0 | 22.5 | 0.00 | 0.00 | 0.00 | 78 | 1009.8 |
| 20260505174733 | 25 | 360 | 8.0 | 22.5 | 0.00 | 0.00 | 0.00 | 78 | 1009.8 |
| 20260505174618 | 25 | 360 | 9.7 | 22.5 | 0.00 | 0.00 | 0.00 | 78 | 1009.8 |
| 20260505174517 | 25 | 360 | 11.3 | 22.5 | 0.00 | 0.00 | 0.00 | 78 | 1009.9 |
| 20260505174418 | 25 | 360 | 12.9 | 20.9 | 0.00 | 0.00 | 0.00 | 78 | 1009.9 |
| 20260505174339 | 25 | 360 | 12.9 | 20.9 | 0.00 | 0.00 | 0.00 | 78 | 1009.9 |
| 20260505174239 | 25 | 360 | 11.3 | 20.9 | 0.00 | 0.00 | 0.00 | 79 | 1009.8 |
| 20260505174138 | 25 | 360 | 11.3 | 20.9 | 0.00 | 0.00 | 0.00 | 79 | 1009.8 |
| 20260505174058 | 25 | 360 | 9.7 | 20.9 | 0.00 | 0.00 | 0.00 | 79 | 1009.9 |
| 20260505173957 | 25 | 360 | 9.7 | 20.9 | 0.00 | 0.00 | 0.00 | 79 | 1009.9 |
| 20260505173857 | 25 | 360 | 8.0 | 20.9 | 0.00 | 0.00 | 0.00 | 80 | 1009.8 |
| 20260505173739 | 25 | 360 | 6.4 | 20.9 | 0.00 | 0.00 | 0.00 | 80 | 1010.3 |
| 20260505173620 | 25 | 360 | 6.4 | 20.9 | 0.00 | 0.00 | 0.00 | 79 | 1009.9 |
| 20260505173540 | 25 | 360 | 6.4 | 20.9 | 0.00 | 0.00 | 0.00 | 80 | 1009.9 |
| 20260505173419 | 25 | 360 | 6.4 | 19.3 | 0.00 | 0.00 | 0.00 | 80 | 1009.8 |
| 20260505173319 | 25 | 360 | 6.4 | 19.3 | 0.00 | 0.00 | 0.00 | 80 | 1009.9 |
| 20260505173220 | 25 | 360 | 6.4 | 19.3 | 0.00 | 0.00 | 0.00 | 80 | 1009.9 |
| 20260505173120 | 24 | 360 | 6.4 | 19.3 | 0.00 | 0.00 | 0.00 | 80 | 1009.9 |
| 20260505173025 | 24 | 360 | 4.8 | 25.7 | 0.00 | 0.00 | 0.00 | 80 | 1010.0 |
| 20260505172925 | 24 | 360 | 4.8 | 25.7 | 0.00 | 0.00 | 0.00 | 80 | 1010.0 |
| 20260505172846 | 24 | 360 | 4.8 | 25.7 | 0.00 | 0.00 | 0.00 | 80 | 1010.0 |
| 20260505172725 | 24 | 360 | 6.4 | 25.7 | 0.00 | 0.00 | 0.00 | 80 | 1010.0 |
| 20260505172624 | 24 | 360 | 6.4 | 25.7 | 0.00 | 0.00 | 0.00 | 80 | 1010.0 |
| 20260505172524 | 24 | 360 | 8.0 | 25.7 | 0.00 | 0.00 | 0.00 | 80 | 1010.0 |
| 20260505172424 | 24 | 360 | 8.0 | 25.7 | 0.00 | 0.00 | 0.00 | 80 | 1010.1 |
| 20260505172324 | 24 | 360 | 9.7 | 25.7 | 0.00 | 0.00 | 0.00 | 80 | 1010.0 |
| 20260505172229 | 24 | 360 | 9.7 | 25.7 | 0.00 | 0.00 | 0.00 | 80 | 1010.0 |
| 20260505172130 | 24 | 360 | 9.7 | 25.7 | 0.00 | 0.00 | 0.00 | 80 | 1010.1 |
| 20260505172051 | 24 | 360 | 8.0 | 25.7 | 0.00 | 0.00 | 0.00 | 80 | 1010.1 |
| 20260505171931 | 24 | 360 | 6.4 | 19.3 | 0.00 | 0.00 | 0.00 | 80 | 1010.1 |
| 20260505171831 | 24 | 360 | 4.8 | 19.3 | 0.00 | 0.00 | 0.00 | 80 | 1010.1 |
| 20260505171751 | 24 | 360 | 3.2 | 16.1 | 0.00 | 0.00 | 0.00 | 80 | 1010.1 |
| 20260505171631 | 24 | 360 | 3.2 | 16.1 | 0.00 | 0.00 | 0.00 | 81 | 1010.1 |
| 20260505171551 | 24 | 360 | 3.2 | 16.1 | 0.00 | 0.00 | 0.00 | 81 | 1010.1 |
| 20260505171435 | 24 | 360 | 3.2 | 16.1 | 0.00 | 0.00 | 0.00 | 81 | 1010.1 |
| 20260505171336 | 24 | 360 | 3.2 | 16.1 | 0.00 | 0.00 | 0.00 | 81 | 1010.1 |
| 20260505171216 | 23 | 360 | 4.8 | 16.1 | 0.00 | 0.00 | 0.00 | 81 | 1010.0 |
| 20260505171117 | 23 | 209 | 4.8 | 16.1 | 0.00 | 0.00 | 0.00 | 81 | 1010.1 |
| 20260505171018 | 23 | 360 | 6.4 | 16.1 | 0.00 | 0.00 | 0.00 | 81 | 1010.1 |
| 20260505170919 | 24 | 360 | 6.4 | 20.9 | 0.00 | 0.00 | 0.00 | 81 | 1010.2 |
| 20260505170823 | 24 | 360 | 6.4 | 20.9 | 0.00 | 0.00 | 0.00 | 81 | 1010.1 |
| 20260505170722 | 24 | 360 | 6.4 | 20.9 | 0.00 | 0.00 | 0.00 | 81 | 1010.2 |
| 20260505170622 | 23 | 360 | 6.4 | 20.9 | 0.00 | 0.00 | 0.00 | 81 | 1010.2 |
| 20260505170523 | 23 | 360 | 6.4 | 20.9 | 0.00 | 0.00 | 0.00 | 81 | 1010.2 |
| 20260505170423 | 23 | 360 | 6.4 | 20.9 | 0.00 | 0.00 | 0.00 | 81 | 1010.2 |
| 20260505170323 | 23 | 360 | 6.4 | 20.9 | 0.00 | 0.00 | 0.00 | 81 | 1010.3 |
| 20260505170223 | 23 | 360 | 6.4 | 20.9 | 0.00 | 0.00 | 0.00 | 81 | 1010.1 |
| 20260505170127 | 23 | 360 | 6.4 | 20.9 | 0.00 | 0.00 | 0.00 | 81 | 1010.1 |
| 20260505170048 | 23 | 360 | 6.4 | 16.1 | 0.00 | 0.00 | 0.00 | 82 | 1010.2 |
| 20260505165927 | 23 | 360 | 4.8 | 16.1 | 0.00 | 0.00 | 0.00 | 82 | 1010.1 |
| 20260505165849 | 23 | 360 | 4.8 | 16.1 | 0.00 | 0.00 | 0.00 | 81 | 1010.2 |
| 20260505165808 | 23 | 360 | 4.8 | 16.1 | 0.00 | 0.00 | 0.00 | 81 | 1010.2 |
| 20260505165726 | 23 | 360 | 4.8 | 16.1 | 0.00 | 0.00 | 0.00 | 81 | 1010.2 |
| 20260505165627 | 23 | 360 | 4.8 | 16.1 | 0.00 | 0.00 | 0.00 | 81 | 1010.2 |
| 20260505165547 | 23 | 360 | 4.8 | 16.1 | 0.00 | 0.00 | 0.00 | 81 | 1010.2 |
| 20260505165427 | 23 | 360 | 3.2 | 16.1 | 0.00 | 0.00 | 0.00 | 82 | 1010.2 |
| 20260505165328 | 23 | 360 | 3.2 | 16.1 | 0.00 | 0.00 | 0.00 | 82 | 1010.2 |
| 20260505165232 | 23 | 360 | 3.2 | 16.1 | 0.00 | 0.00 | 0.00 | 82 | 1010.1 |
| 20260505165132 | 23 | 360 | 3.2 | 16.1 | 0.00 | 0.00 | 0.00 | 82 | 1010.2 |
| 20260505165033 | 23 | 360 | 3.2 | 20.9 | 0.00 | 0.00 | 0.00 | 82 | 1010.1 |
| 20260505164933 | 23 | 360 | 3.2 | 20.9 | 0.00 | 0.00 | 0.00 | 82 | 1010.1 |
| 20260505164835 | 23 | 360 | 3.2 | 20.9 | 0.00 | 0.00 | 0.00 | 82 | 1010.2 |
| 20260505164735 | 23 | 360 | 4.8 | 20.9 | 0.00 | 0.00 | 0.00 | 82 | 1010.2 |
| 20260505164619 | 23 | 360 | 4.8 | 20.9 | 0.00 | 0.00 | 0.00 | 82 | 1010.1 |
| 20260505164520 | 23 | 360 | 4.8 | 20.9 | 0.00 | 0.00 | 0.00 | 82 | 1010.2 |
| 20260505164421 | 23 | 360 | 6.4 | 20.9 | 0.00 | 0.00 | 0.00 | 83 | 1010.1 |
| 20260505164342 | 23 | 360 | 6.4 | 20.9 | 0.00 | 0.00 | 0.00 | 83 | 1010.1 |
| 20260505164215 | 23 | 360 | 6.4 | 20.9 | 0.00 | 0.00 | 0.00 | 83 | 1010.1 |
| 20260505164135 | 23 | 360 | 6.4 | 20.9 | 0.00 | 0.00 | 0.00 | 83 | 1010.1 |
| 20260505164056 | 23 | 360 | 8.0 | 20.9 | 0.00 | 0.00 | 0.00 | 83 | 1010.2 |
| 20260505163919 | 23 | 360 | 8.0 | 20.9 | 0.00 | 0.00 | 0.00 | 83 | 1010.1 |
| 20260505163820 | 23 | 360 | 8.0 | 20.9 | 0.00 | 0.00 | 0.00 | 83 | 1010.1 |
| 20260505163719 | 23 | 360 | 8.0 | 20.9 | 0.00 | 0.00 | 0.00 | 84 | 1010.1 |
| 20260505163620 | 23 | 360 | 8.0 | 20.9 | 0.00 | 0.00 | 0.00 | 84 | 1010.0 |
| 20260505163540 | 22 | 360 | 8.0 | 20.9 | 0.00 | 0.00 | 0.00 | 84 | 1010.1 |
| 20260505163420 | 22 | 360 | 8.0 | 20.9 | 0.00 | 0.00 | 0.00 | 84 | 1010.1 |
| 20260505163321 | 22 | 360 | 8.0 | 20.9 | 0.00 | 0.00 | 0.00 | 84 | 1010.1 |
| 20260505163226 | 22 | 360 | 8.0 | 20.9 | 0.00 | 0.00 | 0.00 | 84 | 1010.1 |
| 20260505163125 | 22 | 360 | 8.0 | 20.9 | 0.00 | 0.00 | 0.00 | 84 | 1010.1 |
| 20260505163027 | 22 | 360 | 8.0 | 20.9 | 0.00 | 0.00 | 0.00 | 84 | 1010.0 |
| 20260505162927 | 22 | 360 | 6.4 | 20.9 | 0.00 | 0.00 | 0.00 | 83 | 1010.0 |
| 20260505162828 | 22 | 360 | 6.4 | 20.9 | 0.00 | 0.00 | 0.00 | 83 | 1010.0 |
| 20260505162730 | 22 | 360 | 4.8 | 20.9 | 0.00 | 0.00 | 0.00 | 84 | 1010.0 |
| 20260505162650 | 22 | 360 | 3.2 | 17.7 | 0.00 | 0.00 | 0.00 | 84 | 1010.0 |
| 20260505162532 | 22 | 360 | 3.2 | 17.7 | 0.00 | 0.00 | 0.00 | 84 | 1010.1 |
| 20260505162432 | 22 | 360 | 3.2 | 17.7 | 0.00 | 0.00 | 0.00 | 83 | 1010.0 |
| 20260505162352 | 22 | 360 | 3.2 | 17.7 | 0.00 | 0.00 | 0.00 | 83 | 1010.1 |
| 20260505162232 | 22 | 360 | 3.2 | 17.7 | 0.00 | 0.00 | 0.00 | 83 | 1010.0 |
| 20260505162152 | 22 | 360 | 4.8 | 17.7 | 0.00 | 0.00 | 0.00 | 83 | 1010.1 |
| 20260505162032 | 22 | 360 | 4.8 | 19.3 | 0.00 | 0.00 | 0.00 | 84 | 1010.0 |
| 20260505161932 | 22 | 360 | 4.8 | 19.3 | 0.00 | 0.00 | 0.00 | 84 | 1010.1 |
| 20260505161817 | 22 | 360 | 6.4 | 19.3 | 0.00 | 0.00 | 0.00 | 84 | 1010.1 |
| 20260505161717 | 22 | 360 | 6.4 | 19.3 | 0.00 | 0.00 | 0.00 | 84 | 1010.1 |
| 20260505161617 | 22 | 360 | 8.0 | 19.3 | 0.00 | 0.00 | 0.00 | 85 | 1010.2 |
| 20260505161538 | 22 | 360 | 8.0 | 19.3 | 0.00 | 0.00 | 0.00 | 85 | 1010.2 |
| 20260505161416 | 22 | 360 | 8.0 | 19.3 | 0.00 | 0.00 | 0.00 | 85 | 1010.2 |
| 20260505161317 | 22 | 360 | 8.0 | 19.3 | 0.00 | 0.00 | 0.00 | 85 | 1010.2 |
| 20260505161217 | 22 | 360 | 8.0 | 19.3 | 0.00 | 0.00 | 0.00 | 84 | 1010.2 |
| 20260505161118 | 22 | 360 | 6.4 | 17.7 | 0.00 | 0.00 | 0.00 | 84 | 1010.2 |
| 20260505161023 | 22 | 360 | 6.4 | 14.5 | 0.00 | 0.00 | 0.00 | 85 | 1010.2 |
| 20260505160923 | 22 | 360 | 4.8 | 14.5 | 0.00 | 0.00 | 0.00 | 85 | 1010.1 |
| 20260505160823 | 22 | 360 | 4.8 | 14.5 | 0.00 | 0.00 | 0.00 | 85 | 1010.2 |
| 20260505160724 | 22 | 360 | 4.8 | 14.5 | 0.00 | 0.00 | 0.00 | 85 | 1010.1 |
| 20260505160624 | 22 | 360 | 4.8 | 14.5 | 0.00 | 0.00 | 0.00 | 85 | 1010.2 |
| 20260505160523 | 22 | 360 | 4.8 | 14.5 | 0.00 | 0.00 | 0.00 | 85 | 1010.2 |
| 20260505160444 | 22 | 360 | 4.8 | 14.5 | 0.00 | 0.00 | 0.00 | 85 | 1010.2 |
| 20260505160328 | 22 | 360 | 4.8 | 14.5 | 0.00 | 0.00 | 0.00 | 85 | 1010.2 |
| 20260505160228 | 22 | 360 | 4.8 | 14.5 | 0.00 | 0.00 | 0.00 | 85 | 1010.2 |
| 20260505160127 | 22 | 360 | 4.8 | 14.5 | 0.00 | 0.00 | 0.00 | 85 | 1010.1 |
| 20260505153339 | 22 | 360 | 4.8 | 14.5 | 0.00 | 0.00 | 0.00 | 87 | 1010.3 |
| 20260505153217 | 22 | 360 | 3.2 | 9.7 | 0.00 | 0.00 | 0.00 | 87 | 1010.3 |
| 20260505153118 | 22 | 360 | 3.2 | 9.7 | 0.00 | 0.00 | 0.00 | 87 | 1010.2 |
| 20260505153039 | 22 | 360 | 3.2 | 9.7 | 0.00 | 0.00 | 0.00 | 87 | 1010.3 |
| 20260505152919 | 22 | 360 | 3.2 | 9.7 | 0.00 | 0.00 | 0.00 | 87 | 1010.3 |
| 20260505152820 | 22 | 360 | 3.2 | 17.7 | 0.00 | 0.00 | 0.00 | 87 | 1010.2 |
| 20260505152724 | 22 | 360 | 3.2 | 17.7 | 0.00 | 0.00 | 0.00 | 87 | 1010.2 |
| 20260505152624 | 22 | 360 | 3.2 | 17.7 | 0.00 | 0.00 | 0.00 | 87 | 1010.2 |
| 20260505152525 | 22 | 360 | 3.2 | 17.7 | 0.00 | 0.00 | 0.00 | 87 | 1010.1 |
| 20260505152425 | 22 | 360 | 4.8 | 17.7 | 0.00 | 0.00 | 0.00 | 87 | 1010.2 |
| 20260505152325 | 22 | 360 | 6.4 | 17.7 | 0.00 | 0.00 | 0.00 | 87 | 1010.1 |
| 20260505152225 | 22 | 360 | 6.4 | 17.7 | 0.00 | 0.00 | 0.00 | 87 | 1010.1 |
| 20260505152125 | 22 | 360 | 8.0 | 17.7 | 0.00 | 0.00 | 0.00 | 87 | 1010.1 |
| 20260505152046 | 21 | 360 | 8.0 | 17.7 | 0.00 | 0.00 | 0.00 | 87 | 1010.1 |
| 20260505151929 | 21 | 360 | 6.4 | 17.7 | 0.00 | 0.00 | 0.00 | 87 | 1010.1 |
| 20260505151829 | 21 | 360 | 4.8 | 17.7 | 0.00 | 0.00 | 0.00 | 87 | 1010.2 |
| 20260505151730 | 21 | 360 | 6.4 | 17.7 | 0.00 | 0.00 | 0.00 | 87 | 1010.1 |
| 20260505151630 | 21 | 360 | 4.8 | 17.7 | 0.00 | 0.00 | 0.00 | 87 | 1010.2 |
| 20260505151551 | 21 | 360 | 6.4 | 17.7 | 0.00 | 0.00 | 0.00 | 87 | 1010.3 |
| 20260505151431 | 21 | 360 | 6.4 | 25.7 | 0.00 | 0.00 | 0.00 | 87 | 1010.3 |
| 20260505151331 | 21 | 360 | 6.4 | 25.7 | 0.00 | 0.00 | 0.00 | 87 | 1010.3 |
| 20260505151236 | 21 | 360 | 6.4 | 25.7 | 0.00 | 0.00 | 0.00 | 87 | 1010.3 |
| 20260505151135 | 21 | 360 | 6.4 | 25.7 | 0.00 | 0.00 | 0.00 | 88 | 1010.2 |
| 20260505151035 | 21 | 360 | 6.4 | 25.7 | 0.00 | 0.00 | 0.00 | 88 | 1010.1 |
| 20260505150935 | 21 | 360 | 6.4 | 25.7 | 0.00 | 0.00 | 0.00 | 88 | 1010.1 |
| 20260505150816 | 21 | 360 | 8.0 | 25.7 | 0.00 | 0.00 | 0.00 | 88 | 1010.0 |
| 20260505150716 | 21 | 360 | 6.4 | 25.7 | 0.00 | 0.00 | 0.00 | 88 | 1009.9 |
| 20260505150621 | 21 | 360 | 8.0 | 25.7 | 0.00 | 0.00 | 0.00 | 88 | 1010.0 |
| 20260505150522 | 21 | 360 | 4.8 | 24.1 | 0.00 | 0.00 | 0.00 | 88 | 1009.9 |
| 20260505150422 | 21 | 360 | 4.8 | 24.1 | 0.00 | 0.00 | 0.00 | 88 | 1009.9 |
| 20260505150342 | 21 | 360 | 6.4 | 24.1 | 0.00 | 0.00 | 0.00 | 88 | 1009.9 |
| 20260505150221 | 21 | 360 | 8.0 | 24.1 | 0.00 | 0.00 | 0.00 | 88 | 1009.9 |
| 20260505150122 | 21 | 360 | 8.0 | 24.1 | 0.00 | 0.00 | 0.00 | 88 | 1009.8 |
| 20260505140617 | 21 | 360 | 3.2 | 25.7 | 0.00 | 0.00 | 0.00 | 88 | 1009.7 |
| 20260505140519 | 21 | 360 | 3.2 | 25.7 | 0.00 | 0.00 | 0.00 | 88 | 1009.7 |
| 20260505140417 | 21 | 360 | 4.8 | 25.7 | 0.00 | 0.00 | 0.00 | 88 | 1009.7 |
| 20260505140318 | 21 | 360 | 6.4 | 25.7 | 0.00 | 0.00 | 0.00 | 88 | 1009.6 |
| 20260505140223 | 21 | 360 | 8.0 | 25.7 | 0.00 | 0.00 | 0.00 | 88 | 1009.6 |
| 20260505140123 | 21 | 360 | 8.0 | 25.7 | 0.00 | 0.00 | 0.00 | 88 | 1009.7 |
| 20260505130217 | 21 | 360 | 6.4 | 25.7 | 0.00 | 0.00 | 0.00 | 87 | 1009.1 |
| 20260505130118 | 21 | 360 | 6.4 | 25.7 | 0.00 | 0.00 | 0.00 | 87 | 1009.2 |
| 20260505125026 | 21 | 360 | 9.7 | 30.6 | 0.00 | 0.00 | 0.00 | 87 | 1008.9 |
| 20260505124927 | 21 | 360 | 11.3 | 30.6 | 0.00 | 0.00 | 0.00 | 88 | 1008.9 |
| 20260505124827 | 21 | 360 | 11.3 | 30.6 | 0.00 | 0.00 | 0.00 | 87 | 1008.9 |
| 20260505124747 | 21 | 360 | 11.3 | 30.6 | 0.00 | 0.00 | 0.00 | 88 | 1008.8 |
| 20260505124627 | 21 | 360 | 11.3 | 30.6 | 0.00 | 0.00 | 0.00 | 87 | 1008.9 |
| 20260505124548 | 21 | 360 | 11.3 | 30.6 | 0.00 | 0.00 | 0.00 | 87 | 1008.9 |
| 20260505124427 | 21 | 360 | 11.3 | 30.6 | 0.00 | 0.00 | 0.00 | 87 | 1008.7 |
| 20260505124329 | 21 | 360 | 9.7 | 30.6 | 0.00 | 0.00 | 0.00 | 88 | 1008.8 |
| 20260505124254 | 21 | 360 | 9.7 | 22.5 | 0.00 | 0.00 | 0.00 | 88 | 1008.8 |
| 20260505124134 | 21 | 360 | 8.0 | 22.5 | 0.00 | 0.00 | 0.00 | 88 | 1008.8 |
| 20260505124055 | 21 | 360 | 6.4 | 19.3 | 0.00 | 0.00 | 0.00 | 88 | 1008.8 |
| 20260505123934 | 21 | 360 | 6.4 | 19.3 | 0.00 | 0.00 | 0.00 | 88 | 1008.8 |
| 20260505123835 | 21 | 360 | 6.4 | 22.5 | 0.00 | 0.00 | 0.00 | 88 | 1008.7 |
| 20260505123735 | 21 | 360 | 4.8 | 22.5 | 0.00 | 0.00 | 0.00 | 88 | 1008.7 |
| 20260505123617 | 21 | 360 | 3.2 | 22.5 | 0.00 | 0.00 | 0.00 | 88 | 1008.7 |
| 20260505123542 | 21 | 360 | 3.2 | 22.5 | 0.00 | 0.00 | 0.00 | 88 | 1008.7 |
| 20260505123416 | 21 | 360 | 6.4 | 22.5 | 0.00 | 0.00 | 0.00 | 88 | 1008.7 |
| 20260505123316 | 21 | 360 | 6.4 | 22.5 | 0.00 | 0.00 | 0.00 | 88 | 1008.7 |
| 20260505123217 | 21 | 360 | 8.0 | 22.5 | 0.00 | 0.00 | 0.00 | 88 | 1008.6 |
| 20260505123137 | 21 | 360 | 8.0 | 22.5 | 0.00 | 0.00 | 0.00 | 88 | 1008.6 |
| 20260505123016 | 21 | 360 | 8.0 | 22.5 | 0.00 | 0.00 | 0.00 | 87 | 1008.6 |
| 20260505122917 | 21 | 360 | 8.0 | 22.5 | 0.00 | 0.00 | 0.00 | 87 | 1008.6 |
| 20260505122822 | 21 | 360 | 8.0 | 25.7 | 0.00 | 0.00 | 0.00 | 87 | 1008.6 |
| 20260505122721 | 21 | 360 | 8.0 | 25.7 | 0.00 | 0.00 | 0.00 | 87 | 1008.6 |
| 20260505122622 | 21 | 360 | 8.0 | 25.7 | 0.00 | 0.00 | 0.00 | 87 | 1008.6 |
| 20260505122523 | 21 | 360 | 9.7 | 25.7 | 0.00 | 0.00 | 0.00 | 87 | 1008.5 |
| 20260505122444 | 21 | 360 | 9.7 | 25.7 | 0.00 | 0.00 | 0.00 | 87 | 1008.6 |
| 20260505122323 | 21 | 360 | 8.0 | 25.7 | 0.00 | 0.00 | 0.00 | 87 | 1008.5 |
| 20260505122223 | 21 | 360 | 8.0 | 25.7 | 0.00 | 0.00 | 0.00 | 87 | 1008.5 |
| 20260505122148 | 21 | 360 | 9.7 | 25.7 | 0.00 | 0.00 | 0.00 | 87 | 1008.5 |
| 20260505122027 | 21 | 360 | 11.3 | 25.7 | 0.00 | 0.00 | 0.00 | 87 | 1008.5 |
| 20260505121948 | 21 | 360 | 11.3 | 25.7 | 0.00 | 0.00 | 0.00 | 87 | 1008.5 |
| 20260505121828 | 21 | 360 | 11.3 | 24.1 | 0.00 | 0.00 | 0.00 | 87 | 1008.4 |
| 20260505121748 | 21 | 360 | 9.7 | 24.1 | 0.00 | 0.00 | 0.00 | 87 | 1008.5 |
| 20260505121627 | 21 | 360 | 11.3 | 24.1 | 0.00 | 0.00 | 0.00 | 87 | 1008.4 |
| 20260505121528 | 21 | 360 | 9.7 | 24.1 | 0.00 | 0.00 | 0.00 | 87 | 1008.3 |
| 20260505121429 | 21 | 360 | 9.7 | 24.1 | 0.00 | 0.00 | 0.00 | 87 | 1008.3 |
| 20260505121333 | 21 | 360 | 9.7 | 24.1 | 0.00 | 0.00 | 0.00 | 87 | 1008.3 |
| 20260505121233 | 21 | 360 | 9.7 | 24.1 | 0.00 | 0.00 | 0.00 | 87 | 1008.2 |
| 20260505121155 | 21 | 360 | 9.7 | 24.1 | 0.00 | 0.00 | 0.00 | 87 | 1008.3 |
| 20260505121035 | 21 | 360 | 9.7 | 24.1 | 0.00 | 0.00 | 0.00 | 87 | 1008.3 |
| 20260505120936 | 21 | 360 | 9.7 | 24.1 | 0.00 | 0.00 | 0.00 | 87 | 1008.3 |
| 20260505120857 | 21 | 360 | 9.7 | 24.1 | 0.00 | 0.00 | 0.00 | 87 | 1008.3 |
| 20260505120755 | 21 | 360 | 8.0 | 24.1 | 0.00 | 0.00 | 0.00 | 87 | 1008.2 |
| 20260505120620 | 21 | 360 | 8.0 | 22.5 | 0.00 | 0.00 | 0.00 | 87 | 1008.4 |
| 20260505120521 | 21 | 360 | 8.0 | 22.5 | 0.00 | 0.00 | 0.00 | 87 | 1008.3 |
| 20260505120422 | 21 | 360 | 8.0 | 22.5 | 0.00 | 0.00 | 0.00 | 87 | 1008.3 |
| 20260505120321 | 21 | 360 | 6.4 | 22.5 | 0.00 | 0.00 | 0.00 | 87 | 1008.4 |
| 20260505120222 | 21 | 360 | 4.8 | 22.5 | 0.00 | 0.00 | 0.00 | 87 | 1008.4 |
| 20260505120142 | 21 | 360 | 6.4 | 22.5 | 0.00 | 0.00 | 0.00 | 87 | 1008.4 |
| 20260505120023 | 21 | 360 | 4.8 | 16.1 | 0.00 | 0.00 | 0.00 | 87 | 1008.4 |
| 20260505115926 | 21 | 360 | 4.8 | 16.1 | 0.00 | 0.00 | 0.00 | 87 | 1008.4 |
| 20260505115827 | 21 | 360 | 6.4 | 16.1 | 0.00 | 0.00 | 0.00 | 87 | 1008.3 |
| 20260505115729 | 21 | 360 | 8.0 | 16.1 | 0.00 | 0.00 | 0.00 | 87 | 1008.3 |
| 20260505115629 | 21 | 360 | 6.4 | 16.1 | 0.00 | 0.00 | 0.00 | 87 | 1008.3 |
| 20260505115529 | 21 | 360 | 6.4 | 16.1 | 0.00 | 0.00 | 0.00 | 87 | 1008.3 |
| 20260505115429 | 21 | 360 | 6.4 | 19.3 | 0.00 | 0.00 | 0.00 | 87 | 1008.2 |
| 20260505115330 | 21 | 360 | 6.4 | 20.9 | 0.00 | 0.00 | 0.00 | 87 | 1008.3 |
| 20260505115234 | 21 | 360 | 6.4 | 20.9 | 0.00 | 0.00 | 0.00 | 87 | 1008.3 |
| 20260505115135 | 21 | 360 | 8.0 | 20.9 | 0.00 | 0.00 | 0.00 | 87 | 1008.3 |
| 20260505115016 | 21 | 360 | 8.0 | 20.9 | 0.00 | 0.00 | 0.00 | 87 | 1008.3 |
| 20260505114937 | 21 | 360 | 8.0 | 20.9 | 0.00 | 0.00 | 0.00 | 87 | 1008.3 |
| 20260505114836 | 21 | 360 | 9.7 | 20.9 | 0.00 | 0.00 | 0.00 | 87 | 1008.3 |
| 20260505114716 | 21 | 360 | 8.0 | 20.9 | 0.00 | 0.00 | 0.00 | 87 | 1008.3 |
| 20260505114617 | 21 | 360 | 8.0 | 20.9 | 0.00 | 0.00 | 0.00 | 87 | 1008.3 |
| 20260505114522 | 21 | 360 | 8.0 | 20.9 | 0.00 | 0.00 | 0.00 | 87 | 1008.4 |
| 20260505114443 | 21 | 360 | 8.0 | 20.9 | 0.00 | 0.00 | 0.00 | 87 | 1008.3 |
| 20260505114322 | 21 | 360 | 8.0 | 20.9 | 0.00 | 0.00 | 0.00 | 87 | 1008.3 |
| 20260505114242 | 21 | 360 | 8.0 | 20.9 | 0.00 | 0.00 | 0.00 | 87 | 1008.3 |
| 20260505114142 | 21 | 360 | 8.0 | 20.9 | 0.00 | 0.00 | 0.00 | 87 | 1008.2 |
| 20260505114043 | 21 | 360 | 8.0 | 19.3 | 0.00 | 0.00 | 0.00 | 87 | 1008.2 |
| 20260505113921 | 21 | 360 | 8.0 | 19.3 | 0.00 | 0.00 | 0.00 | 87 | 1008.2 |
| 20260505113822 | 21 | 360 | 8.0 | 19.3 | 0.00 | 0.00 | 0.00 | 87 | 1008.2 |
| 20260505113727 | 21 | 360 | 8.0 | 19.3 | 0.00 | 0.00 | 0.00 | 87 | 1008.2 |
| 20260505113627 | 21 | 360 | 8.0 | 19.3 | 0.00 | 0.00 | 0.00 | 87 | 1008.1 |
| 20260505113548 | 21 | 360 | 8.0 | 19.3 | 0.00 | 0.00 | 0.00 | 87 | 1008.1 |
| 20260505113428 | 21 | 360 | 6.4 | 16.1 | 0.00 | 0.00 | 0.00 | 87 | 1008.1 |
| 20260505113348 | 21 | 360 | 6.4 | 16.1 | 0.00 | 0.00 | 0.00 | 87 | 1008.0 |
| 20260505113228 | 21 | 360 | 6.4 | 16.1 | 0.00 | 0.00 | 0.00 | 87 | 1008.1 |
| 20260505113129 | 21 | 360 | 6.4 | 16.1 | 0.00 | 0.00 | 0.00 | 87 | 1008.1 |
| 20260505113051 | 21 | 360 | 6.4 | 20.9 | 0.00 | 0.00 | 0.00 | 87 | 1008.0 |
| 20260505112934 | 21 | 360 | 6.4 | 20.9 | 0.00 | 0.00 | 0.00 | 87 | 1007.9 |
| 20260505112834 | 21 | 360 | 6.4 | 20.9 | 0.00 | 0.00 | 0.00 | 87 | 1007.9 |
| 20260505112735 | 21 | 360 | 6.4 | 20.9 | 0.00 | 0.00 | 0.00 | 87 | 1008.0 |
| 20260505112654 | 21 | 360 | 6.4 | 20.9 | 0.00 | 0.00 | 0.00 | 87 | 1008.0 |
| 20260505112533 | 21 | 360 | 6.4 | 20.9 | 0.00 | 0.00 | 0.00 | 87 | 1008.1 |
| 20260505112434 | 21 | 360 | 6.4 | 20.9 | 0.00 | 0.00 | 0.00 | 87 | 1008.2 |
| 20260505112334 | 21 | 360 | 6.4 | 24.1 | 0.00 | 0.00 | 0.00 | 87 | 1008.2 |
| 20260505112235 | 21 | 360 | 4.8 | 24.1 | 0.00 | 0.00 | 0.00 | 87 | 1008.2 |
| 20260505112119 | 21 | 360 | 6.4 | 24.1 | 0.00 | 0.00 | 0.00 | 87 | 1008.3 |
| 20260505112019 | 21 | 360 | 4.8 | 24.1 | 0.00 | 0.00 | 0.00 | 87 | 1008.3 |
| 20260505111919 | 21 | 360 | 4.8 | 24.1 | 0.00 | 0.00 | 0.00 | 87 | 1008.2 |
| 20260505111820 | 21 | 360 | 6.4 | 24.1 | 0.00 | 0.00 | 0.00 | 87 | 1008.1 |
| 20260505111721 | 21 | 360 | 8.0 | 24.1 | 0.00 | 0.00 | 0.00 | 87 | 1008.1 |
| 20260505111621 | 21 | 360 | 8.0 | 22.5 | 0.00 | 0.00 | 0.00 | 87 | 1008.1 |
| 20260505111522 | 21 | 360 | 6.4 | 22.5 | 0.00 | 0.00 | 0.00 | 87 | 1008.1 |
| 20260505111426 | 21 | 360 | 6.4 | 22.5 | 0.00 | 0.00 | 0.00 | 87 | 1008.1 |
| 20260505111327 | 21 | 360 | 6.4 | 22.5 | 0.00 | 0.00 | 0.00 | 87 | 1008.2 |
| 20260505111228 | 21 | 360 | 6.4 | 22.5 | 0.00 | 0.00 | 0.00 | 87 | 1008.1 |
| 20260505111128 | 21 | 360 | 6.4 | 22.5 | 0.00 | 0.00 | 0.00 | 87 | 1008.1 |
| 20260505111029 | 21 | 360 | 8.0 | 22.5 | 0.00 | 0.00 | 0.00 | 87 | 1008.2 |
| 20260505110930 | 21 | 360 | 8.0 | 22.5 | 0.00 | 0.00 | 0.00 | 87 | 1008.2 |
| 20260505110830 | 21 | 360 | 9.7 | 22.5 | 0.00 | 0.00 | 0.00 | 87 | 1008.3 |
| 20260505110735 | 21 | 360 | 11.3 | 22.5 | 0.00 | 0.00 | 0.00 | 87 | 1008.3 |
| 20260505110636 | 21 | 360 | 9.7 | 22.5 | 0.00 | 0.00 | 0.00 | 87 | 1008.3 |
| 20260505110535 | 21 | 360 | 11.3 | 22.5 | 0.00 | 0.00 | 0.00 | 87 | 1008.3 |
| 20260505110416 | 21 | 360 | 11.3 | 22.5 | 0.00 | 0.00 | 0.00 | 87 | 1008.4 |
| 20260505110317 | 21 | 360 | 11.3 | 22.5 | 0.00 | 0.00 | 0.00 | 87 | 1008.4 |
| 20260505110217 | 21 | 360 | 9.7 | 22.5 | 0.00 | 0.00 | 0.00 | 87 | 1008.4 |
| 20260505110122 | 21 | 360 | 9.7 | 19.3 | 0.00 | 0.00 | 0.00 | 87 | 1008.5 |
| 20260505102120 | 21 | 360 | 12.9 | 30.6 | 0.00 | 0.00 | 0.00 | 87 | 1008.5 |
| 20260505102024 | 21 | 360 | 12.9 | 30.6 | 0.00 | 0.00 | 0.00 | 87 | 1008.5 |
| 20260505101924 | 21 | 360 | 9.7 | 25.7 | 0.00 | 0.00 | 0.00 | 87 | 1008.5 |
| 20260505101845 | 21 | 360 | 9.7 | 25.7 | 0.00 | 0.00 | 0.00 | 87 | 1008.5 |
| 20260505101724 | 21 | 360 | 11.3 | 25.7 | 0.00 | 0.00 | 0.00 | 87 | 1008.4 |
| 20260505101644 | 21 | 360 | 11.3 | 25.7 | 0.00 | 0.00 | 0.00 | 87 | 1008.4 |
| 20260505101524 | 21 | 360 | 11.3 | 25.7 | 0.00 | 0.00 | 0.00 | 87 | 1008.5 |
| 20260505101424 | 21 | 360 | 11.3 | 40.2 | 0.00 | 0.00 | 0.00 | 87 | 1008.4 |
| 20260505101329 | 21 | 360 | 11.3 | 40.2 | 0.00 | 0.00 | 0.00 | 87 | 1008.4 |
| 20260505101229 | 21 | 360 | 14.5 | 40.2 | 0.00 | 0.00 | 0.00 | 87 | 1008.3 |
| 20260505101129 | 21 | 360 | 14.5 | 40.2 | 0.00 | 0.00 | 0.00 | 87 | 1008.4 |
| 20260505101031 | 21 | 360 | 11.3 | 40.2 | 0.00 | 0.00 | 0.00 | 87 | 1008.4 |
| 20260505100931 | 21 | 360 | 11.3 | 40.2 | 0.00 | 0.00 | 0.00 | 87 | 1008.4 |
| 20260505100831 | 21 | 360 | 12.9 | 40.2 | 0.00 | 0.00 | 0.00 | 87 | 1008.4 |
| 20260505100732 | 21 | 360 | 11.3 | 40.2 | 0.00 | 0.00 | 0.00 | 87 | 1008.5 |
| 20260505100657 | 21 | 360 | 11.3 | 40.2 | 0.00 | 0.00 | 0.00 | 87 | 1008.5 |
| 20260505100537 | 21 | 360 | 8.0 | 25.7 | 0.00 | 0.00 | 0.00 | 87 | 1008.6 |
| 20260505100456 | 21 | 360 | 8.0 | 25.7 | 0.00 | 0.00 | 0.00 | 87 | 1008.6 |
| 20260505100316 | 21 | 360 | 9.7 | 24.1 | 0.00 | 0.00 | 0.00 | 86 | 1008.5 |
| 20260505100217 | 21 | 360 | 9.7 | 22.5 | 0.00 | 0.00 | 0.00 | 86 | 1008.5 |
| 20260505100118 | 21 | 360 | 9.7 | 22.5 | 0.00 | 0.00 | 0.00 | 86 | 1008.5 |
| 20260505100019 | 21 | 360 | 9.7 | 22.5 | 0.00 | 0.00 | 0.00 | 86 | 1008.5 |
| 20260505095924 | 21 | 360 | 9.7 | 22.5 | 0.00 | 0.00 | 0.00 | 86 | 1008.5 |
| 20260505095826 | 21 | 360 | 9.7 | 22.5 | 0.00 | 0.00 | 0.00 | 86 | 1008.5 |
| 20260505095746 | 21 | 360 | 9.7 | 22.5 | 0.00 | 0.00 | 0.00 | 86 | 1008.5 |
| 20260505095626 | 21 | 360 | 8.0 | 20.9 | 0.00 | 0.00 | 0.00 | 86 | 1008.5 |
| 20260505095526 | 21 | 360 | 6.4 | 20.9 | 0.00 | 0.00 | 0.00 | 86 | 1008.6 |
| 20260505095427 | 21 | 360 | 6.4 | 25.7 | 0.00 | 0.00 | 0.00 | 86 | 1008.5 |
| 20260505095326 | 21 | 360 | 6.4 | 25.7 | 0.00 | 0.00 | 0.00 | 86 | 1008.5 |
| 20260505095232 | 21 | 360 | 6.4 | 25.7 | 0.00 | 0.00 | 0.00 | 86 | 1008.5 |
| 20260505095132 | 21 | 360 | 6.4 | 25.7 | 0.00 | 0.00 | 0.00 | 86 | 1008.4 |
| 20260505095033 | 21 | 360 | 6.4 | 25.7 | 0.00 | 0.00 | 0.00 | 86 | 1008.5 |
| 20260505094934 | 21 | 360 | 6.4 | 25.7 | 0.00 | 0.00 | 0.00 | 86 | 1008.5 |
| 20260505094834 | 21 | 360 | 6.4 | 25.7 | 0.00 | 0.00 | 0.00 | 86 | 1008.5 |
| 20260505094735 | 21 | 360 | 6.4 | 25.7 | 0.00 | 0.00 | 0.00 | 86 | 1008.4 |
| 20260505094656 | 21 | 360 | 6.4 | 29.0 | 0.00 | 0.00 | 0.00 | 86 | 1008.4 |
| 20260505094519 | 21 | 360 | 8.0 | 29.0 | 0.00 | 0.00 | 0.00 | 86 | 1008.4 |
| 20260505094419 | 21 | 360 | 9.7 | 29.0 | 0.00 | 0.00 | 0.00 | 86 | 1008.4 |
| 20260505094320 | 21 | 360 | 9.7 | 29.0 | 0.00 | 0.00 | 0.00 | 86 | 1008.3 |
| 20260505094221 | 21 | 360 | 9.7 | 29.0 | 0.00 | 0.00 | 0.00 | 86 | 1008.4 |
| 20260505094142 | 21 | 360 | 9.7 | 29.0 | 0.00 | 0.00 | 0.00 | 86 | 1008.4 |
| 20260505094022 | 21 | 360 | 9.7 | 29.0 | 0.00 | 0.00 | 0.00 | 86 | 1008.5 |
| 20260505093922 | 21 | 360 | 11.3 | 29.0 | 0.00 | 0.00 | 0.00 | 86 | 1008.5 |
| 20260505093827 | 21 | 360 | 9.7 | 29.0 | 0.00 | 0.00 | 0.00 | 86 | 1008.5 |
| 20260505093727 | 21 | 360 | 9.7 | 22.5 | 0.00 | 0.00 | 0.00 | 86 | 1008.5 |
| 20260505093648 | 21 | 360 | 9.7 | 27.4 | 0.00 | 0.00 | 0.00 | 86 | 1008.5 |
| 20260505093528 | 21 | 360 | 8.0 | 27.4 | 0.00 | 0.00 | 0.00 | 86 | 1008.6 |
| 20260505093427 | 21 | 360 | 9.7 | 27.4 | 0.00 | 0.00 | 0.00 | 86 | 1008.6 |
| 20260505093328 | 21 | 360 | 9.7 | 27.4 | 0.00 | 0.00 | 0.00 | 86 | 1008.6 |
| 20260505093230 | 21 | 360 | 9.7 | 27.4 | 0.00 | 0.00 | 0.00 | 86 | 1008.5 |
| 20260505093134 | 21 | 360 | 9.7 | 27.4 | 0.00 | 0.00 | 0.00 | 86 | 1008.6 |
| 20260505093034 | 21 | 360 | 11.3 | 27.4 | 0.00 | 0.00 | 0.00 | 86 | 1008.6 |
| 20260505092916 | 21 | 360 | 11.3 | 27.4 | 0.00 | 0.00 | 0.00 | 86 | 1008.4 |
| 20260505092818 | 21 | 360 | 11.3 | 24.1 | 0.00 | 0.00 | 0.00 | 86 | 1008.4 |
| 20260505092717 | 21 | 360 | 11.3 | 24.1 | 0.00 | 0.00 | 0.00 | 86 | 1008.4 |
| 20260505092616 | 21 | 360 | 9.7 | 24.1 | 0.00 | 0.00 | 0.00 | 86 | 1008.5 |
| 20260505092521 | 21 | 360 | 9.7 | 27.4 | 0.00 | 0.00 | 0.00 | 86 | 1008.6 |
| 20260505092422 | 21 | 360 | 9.7 | 27.4 | 0.00 | 0.00 | 0.00 | 86 | 1008.6 |
| 20260505092322 | 21 | 360 | 8.0 | 27.4 | 0.00 | 0.00 | 0.00 | 86 | 1008.6 |
| 20260505092221 | 21 | 360 | 8.0 | 27.4 | 0.00 | 0.00 | 0.00 | 86 | 1008.6 |
| 20260505092122 | 21 | 360 | 8.0 | 27.4 | 0.00 | 0.00 | 0.00 | 86 | 1008.6 |
| 20260505092043 | 21 | 360 | 8.0 | 25.7 | 0.00 | 0.00 | 0.00 | 86 | 1008.6 |
| 20260505091942 | 21 | 360 | 8.0 | 25.7 | 0.00 | 0.00 | 0.00 | 86 | 1008.6 |
| 20260505091823 | 21 | 360 | 8.0 | 25.7 | 0.00 | 0.00 | 0.00 | 86 | 1008.4 |
| 20260505091726 | 21 | 360 | 8.0 | 25.7 | 0.00 | 0.00 | 0.00 | 86 | 1008.4 |
| 20260505091627 | 21 | 360 | 8.0 | 25.7 | 0.00 | 0.00 | 0.00 | 86 | 1008.4 |
| 20260505091528 | 21 | 360 | 9.7 | 25.7 | 0.00 | 0.00 | 0.00 | 86 | 1008.4 |
| 20260505091429 | 21 | 360 | 9.7 | 25.7 | 0.00 | 0.00 | 0.00 | 86 | 1008.4 |
| 20260505091329 | 21 | 360 | 9.7 | 25.7 | 0.00 | 0.00 | 0.00 | 86 | 1008.4 |
| 20260505091229 | 21 | 360 | 9.7 | 25.7 | 0.00 | 0.00 | 0.00 | 86 | 1008.5 |
| 20260505091130 | 21 | 360 | 12.9 | 25.7 | 0.00 | 0.00 | 0.00 | 86 | 1008.5 |
| 20260505091035 | 21 | 360 | 12.9 | 33.8 | 0.00 | 0.00 | 0.00 | 86 | 1008.5 |
| 20260505090935 | 21 | 360 | 12.9 | 33.8 | 0.00 | 0.00 | 0.00 | 86 | 1008.4 |
| 20260505090836 | 21 | 360 | 12.9 | 33.8 | 0.00 | 0.00 | 0.00 | 86 | 1008.3 |
| 20260505090716 | 21 | 360 | 11.3 | 33.8 | 0.00 | 0.00 | 0.00 | 85 | 1008.4 |
| 20260505090616 | 21 | 360 | 9.7 | 33.8 | 0.00 | 0.00 | 0.00 | 85 | 1008.4 |
| 20260505090517 | 21 | 360 | 8.0 | 33.8 | 0.00 | 0.00 | 0.00 | 85 | 1008.4 |
| 20260505090422 | 21 | 360 | 9.7 | 33.8 | 0.00 | 0.00 | 0.00 | 85 | 1008.6 |
| 20260505090322 | 21 | 360 | 9.7 | 33.8 | 0.00 | 0.00 | 0.00 | 86 | 1008.5 |
| 20260505090223 | 21 | 360 | 9.7 | 33.8 | 0.00 | 0.00 | 0.00 | 86 | 1008.5 |
| 20260505090123 | 21 | 360 | 9.7 | 33.8 | 0.00 | 0.00 | 0.00 | 86 | 1008.6 |
| 20260505090024 | 21 | 360 | 11.3 | 33.8 | 0.00 | 0.00 | 0.00 | 86 | 1008.7 |
| 20260505085924 | 21 | 360 | 11.3 | 32.2 | 0.00 | 0.00 | 0.00 | 86 | 1008.6 |
| 20260505085824 | 21 | 360 | 11.3 | 32.2 | 0.00 | 0.00 | 0.00 | 86 | 1008.7 |
| 20260505085729 | 21 | 360 | 9.7 | 22.5 | 0.00 | 0.00 | 0.00 | 86 | 1008.7 |
| 20260505085649 | 21 | 360 | 9.7 | 27.4 | 0.00 | 0.00 | 0.00 | 86 | 1008.7 |
| 20260505085528 | 21 | 360 | 11.3 | 27.4 | 0.00 | 0.00 | 0.00 | 86 | 1008.7 |
| 20260505085429 | 21 | 360 | 12.9 | 27.4 | 0.00 | 0.00 | 0.00 | 86 | 1008.6 |
| 20260505085330 | 21 | 360 | 12.9 | 27.4 | 0.00 | 0.00 | 0.00 | 86 | 1008.6 |
| 20260505085249 | 21 | 360 | 12.9 | 27.4 | 0.00 | 0.00 | 0.00 | 86 | 1008.6 |
| 20260505085128 | 21 | 360 | 12.9 | 27.4 | 0.00 | 0.00 | 0.00 | 86 | 1008.6 |
| 20260505085029 | 21 | 360 | 12.9 | 27.4 | 0.00 | 0.00 | 0.00 | 86 | 1008.7 |
| 20260505084934 | 21 | 360 | 12.9 | 27.4 | 0.00 | 0.00 | 0.00 | 85 | 1008.8 |
| 20260505084854 | 21 | 360 | 11.3 | 25.7 | 0.00 | 0.00 | 0.00 | 85 | 1008.7 |
| 20260505084755 | 21 | 360 | 9.7 | 33.8 | 0.00 | 0.00 | 0.00 | 85 | 1008.8 |
| 20260505084634 | 21 | 360 | 9.7 | 33.8 | 0.00 | 0.00 | 0.00 | 85 | 1008.8 |
| 20260505084516 | 21 | 360 | 9.7 | 33.8 | 0.00 | 0.00 | 0.00 | 85 | 1008.8 |
| 20260505084417 | 21 | 360 | 11.3 | 33.8 | 0.00 | 0.00 | 0.00 | 85 | 1008.7 |
| 20260505084317 | 21 | 360 | 11.3 | 33.8 | 0.00 | 0.00 | 0.00 | 85 | 1008.7 |
| 20260505084222 | 21 | 360 | 12.9 | 33.8 | 0.00 | 0.00 | 0.00 | 85 | 1008.6 |
| 20260505084142 | 21 | 360 | 12.9 | 33.8 | 0.00 | 0.00 | 0.00 | 85 | 1008.6 |
| 20260505084022 | 21 | 360 | 12.9 | 33.8 | 0.00 | 0.00 | 0.00 | 85 | 1008.6 |
| 20260505083939 | 21 | 360 | 12.9 | 32.2 | 0.00 | 0.00 | 0.00 | 85 | 1008.7 |
| 20260505083839 | 21 | 360 | 12.9 | 32.2 | 0.00 | 0.00 | 0.00 | 85 | 1008.6 |
| 20260505083720 | 21 | 360 | 11.3 | 29.0 | 0.00 | 0.00 | 0.00 | 85 | 1008.6 |
| 20260505083619 | 21 | 360 | 11.3 | 38.6 | 0.00 | 0.00 | 0.00 | 85 | 1008.7 |
| 20260505083540 | 21 | 360 | 9.7 | 38.6 | 0.00 | 0.00 | 0.00 | 85 | 1008.5 |
| 20260505083424 | 21 | 360 | 9.7 | 38.6 | 0.00 | 0.00 | 0.00 | 85 | 1008.6 |
| 20260505083324 | 21 | 360 | 9.7 | 38.6 | 0.00 | 0.00 | 0.00 | 85 | 1008.6 |
| 20260505083225 | 21 | 360 | 9.7 | 38.6 | 0.00 | 0.00 | 0.00 | 85 | 1008.6 |
| 20260505083125 | 21 | 360 | 11.3 | 38.6 | 0.00 | 0.00 | 0.00 | 85 | 1008.7 |
| 20260505083025 | 21 | 360 | 12.9 | 38.6 | 0.00 | 0.00 | 0.00 | 85 | 1008.7 |
| 20260505082926 | 21 | 360 | 12.9 | 38.6 | 0.00 | 0.00 | 0.00 | 85 | 1008.8 |
| 20260505082826 | 21 | 360 | 12.9 | 38.6 | 0.00 | 0.00 | 0.00 | 86 | 1008.8 |
| 20260505082752 | 21 | 360 | 14.5 | 38.6 | 0.00 | 0.00 | 0.00 | 86 | 1008.9 |
| 20260505082631 | 21 | 360 | 14.5 | 38.6 | 0.00 | 0.00 | 0.00 | 86 | 1008.9 |
| 20260505082551 | 21 | 360 | 14.5 | 38.6 | 0.00 | 0.00 | 0.00 | 86 | 1008.9 |
| 20260505082430 | 21 | 360 | 12.9 | 37.0 | 0.00 | 0.00 | 0.00 | 86 | 1008.9 |
| 20260505082330 | 21 | 360 | 12.9 | 37.0 | 0.00 | 0.00 | 0.00 | 86 | 1008.9 |
| 20260505082251 | 21 | 360 | 12.9 | 37.0 | 0.00 | 0.00 | 0.00 | 86 | 1009.0 |
| 20260505082130 | 21 | 360 | 12.9 | 37.0 | 0.00 | 0.00 | 0.00 | 86 | 1009.0 |
| 20260505082031 | 21 | 360 | 12.9 | 35.4 | 0.00 | 0.00 | 0.00 | 86 | 1009.0 |
| 20260505081916 | 21 | 360 | 9.7 | 35.4 | 0.00 | 0.00 | 0.00 | 86 | 1009.1 |
| 20260505081835 | 21 | 360 | 11.3 | 35.4 | 0.00 | 0.00 | 0.00 | 86 | 1009.1 |
| 20260505081716 | 21 | 360 | 11.3 | 35.4 | 0.00 | 0.00 | 0.00 | 86 | 1009.1 |
| 20260505081617 | 21 | 360 | 9.7 | 35.4 | 0.00 | 0.00 | 0.00 | 86 | 1009.1 |
| 20260505081517 | 21 | 360 | 8.0 | 35.4 | 0.00 | 0.00 | 0.00 | 86 | 1009.1 |
| 20260505081418 | 21 | 360 | 8.0 | 35.4 | 0.00 | 0.00 | 0.00 | 86 | 1009.2 |
| 20260505081322 | 21 | 360 | 9.7 | 35.4 | 0.00 | 0.00 | 0.00 | 86 | 1009.2 |
| 20260505081222 | 21 | 360 | 9.7 | 35.4 | 0.00 | 0.00 | 0.00 | 86 | 1009.1 |
| 20260505081142 | 21 | 360 | 9.7 | 29.0 | 0.00 | 0.00 | 0.00 | 86 | 1009.1 |
| 20260505081042 | 21 | 360 | 9.7 | 29.0 | 0.00 | 0.00 | 0.00 | 86 | 1009.2 |
| 20260505080921 | 21 | 360 | 9.7 | 29.0 | 0.00 | 0.00 | 0.00 | 86 | 1009.2 |
| 20260505080821 | 21 | 360 | 9.7 | 29.0 | 0.00 | 0.00 | 0.00 | 86 | 1009.1 |
| 20260505080723 | 21 | 360 | 11.3 | 32.2 | 0.00 | 0.00 | 0.00 | 86 | 1009.2 |
| 20260505080628 | 21 | 360 | 9.7 | 32.2 | 0.00 | 0.00 | 0.00 | 86 | 1009.2 |
| 20260505080528 | 21 | 360 | 8.0 | 32.2 | 0.00 | 0.00 | 0.00 | 86 | 1009.1 |
| 20260505080449 | 21 | 360 | 8.0 | 32.2 | 0.00 | 0.00 | 0.00 | 86 | 1009.1 |
| 20260505080328 | 21 | 360 | 6.4 | 32.2 | 0.00 | 0.00 | 0.00 | 86 | 1009.2 |
| 20260505080229 | 21 | 360 | 8.0 | 32.2 | 0.00 | 0.00 | 0.00 | 86 | 1009.2 |
| 20260505080130 | 21 | 360 | 8.0 | 32.2 | 0.00 | 0.00 | 0.00 | 86 | 1009.2 |
| 20260505080028 | 21 | 360 | 8.0 | 32.2 | 0.00 | 0.00 | 0.00 | 86 | 1009.2 |
| 20260505075929 | 21 | 360 | 8.0 | 32.2 | 0.00 | 0.00 | 0.00 | 86 | 1009.3 |
| 20260505075833 | 21 | 360 | 9.7 | 32.2 | 0.00 | 0.00 | 0.00 | 86 | 1009.2 |
| 20260505075735 | 21 | 360 | 9.7 | 32.2 | 0.00 | 0.00 | 0.00 | 86 | 1009.2 |
| 20260505075634 | 21 | 360 | 9.7 | 32.2 | 0.00 | 0.00 | 0.00 | 86 | 1009.3 |
| 20260505075535 | 21 | 360 | 11.3 | 32.2 | 0.00 | 0.00 | 0.00 | 86 | 1009.3 |
| 20260505075435 | 21 | 360 | 11.3 | 32.2 | 0.00 | 0.00 | 0.00 | 85 | 1009.3 |
| 20260505075336 | 21 | 360 | 12.9 | 38.6 | 0.00 | 0.00 | 0.00 | 85 | 1009.2 |
| 20260505075220 | 21 | 360 | 12.9 | 38.6 | 0.00 | 0.00 | 0.00 | 85 | 1009.2 |
| 20260505075121 | 21 | 360 | 12.9 | 38.6 | 0.00 | 0.00 | 0.00 | 85 | 1009.4 |
| 20260505075022 | 21 | 360 | 12.9 | 38.6 | 0.00 | 0.00 | 0.00 | 85 | 1009.2 |
| 20260505074941 | 21 | 360 | 12.9 | 38.6 | 0.00 | 0.00 | 0.00 | 85 | 1009.3 |
| 20260505074821 | 21 | 360 | 12.9 | 38.6 | 0.00 | 0.00 | 0.00 | 85 | 1009.4 |
| 20260505074719 | 21 | 360 | 11.3 | 38.6 | 0.00 | 0.00 | 0.00 | 85 | 1009.5 |
| 20260505074619 | 21 | 360 | 9.7 | 38.6 | 0.00 | 0.00 | 0.00 | 85 | 1009.5 |
| 20260505074520 | 21 | 360 | 11.3 | 38.6 | 0.00 | 0.00 | 0.00 | 85 | 1009.5 |
| 20260505074424 | 21 | 360 | 11.3 | 38.6 | 0.00 | 0.00 | 0.00 | 85 | 1009.5 |
| 20260505074325 | 21 | 360 | 11.3 | 38.6 | 0.00 | 0.00 | 0.00 | 85 | 1009.5 |
| 20260505074225 | 21 | 360 | 11.3 | 38.6 | 0.00 | 0.00 | 0.00 | 85 | 1009.4 |
| 20260505074126 | 21 | 360 | 11.3 | 38.6 | 0.00 | 0.00 | 0.00 | 85 | 1009.3 |
| 20260505074046 | 21 | 360 | 12.9 | 38.6 | 0.00 | 0.00 | 0.00 | 85 | 1009.5 |
| 20260505073926 | 21 | 360 | 11.3 | 38.6 | 0.00 | 0.00 | 0.00 | 85 | 1009.5 |
| 20260505073825 | 21 | 360 | 11.3 | 38.6 | 0.00 | 0.00 | 0.00 | 85 | 1009.4 |
| 20260505073750 | 21 | 360 | 11.3 | 33.8 | 0.00 | 0.00 | 0.00 | 85 | 1009.4 |
| 20260505073711 | 21 | 360 | 11.3 | 30.6 | 0.00 | 0.00 | 0.00 | 85 | 1009.3 |
| 20260505073631 | 21 | 360 | 11.3 | 30.6 | 0.00 | 0.00 | 0.00 | 85 | 1009.5 |
| 20260505073510 | 21 | 360 | 9.7 | 30.6 | 0.00 | 0.00 | 0.00 | 85 | 1009.4 |
| 20260505073430 | 21 | 360 | 11.3 | 30.6 | 0.00 | 0.00 | 0.00 | 85 | 1009.5 |
| 20260505073313 | 21 | 360 | 11.3 | 30.6 | 0.00 | 0.00 | 0.00 | 85 | 1009.4 |
| 20260505073158 | 21 | 360 | 11.3 | 30.6 | 0.00 | 0.00 | 0.00 | 85 | 1009.5 |
| 20260505073022 | 21 | 360 | 11.3 | 30.6 | 0.00 | 0.00 | 0.00 | 85 | 1009.5 |
| 20260505072923 | 21 | 360 | 11.3 | 30.6 | 0.00 | 0.00 | 0.00 | 85 | 1009.4 |
| 20260505072824 | 21 | 360 | 11.3 | 30.6 | 0.00 | 0.00 | 0.00 | 85 | 1009.4 |
| 20260505072730 | 21 | 360 | 9.7 | 30.6 | 0.00 | 0.00 | 0.00 | 85 | 1009.4 |
| 20260505072629 | 21 | 360 | 9.7 | 30.6 | 0.00 | 0.00 | 0.00 | 84 | 1009.5 |
| 20260505072529 | 21 | 360 | 9.7 | 30.6 | 0.00 | 0.00 | 0.00 | 84 | 1009.5 |
| 20260505072429 | 21 | 360 | 8.0 | 30.6 | 0.00 | 0.00 | 0.00 | 84 | 1009.5 |
| 20260505072331 | 21 | 360 | 8.0 | 30.6 | 0.00 | 0.00 | 0.00 | 84 | 1009.4 |
| 20260505072230 | 21 | 360 | 9.7 | 30.6 | 0.00 | 0.00 | 0.00 | 84 | 1009.6 |
| 20260505072131 | 21 | 360 | 11.3 | 30.6 | 0.00 | 0.00 | 0.00 | 84 | 1009.6 |
| 20260505072016 | 21 | 360 | 11.3 | 30.6 | 0.00 | 0.00 | 0.00 | 84 | 1009.6 |
| 20260505071918 | 21 | 360 | 11.3 | 30.6 | 0.00 | 0.00 | 0.00 | 84 | 1009.7 |
| 20260505071819 | 21 | 360 | 11.3 | 30.6 | 0.00 | 0.00 | 0.00 | 84 | 1009.7 |
| 20260505071719 | 21 | 360 | 11.3 | 30.6 | 0.00 | 0.00 | 0.00 | 84 | 1009.7 |
| 20260505071619 | 21 | 360 | 9.7 | 27.4 | 0.00 | 0.00 | 0.00 | 84 | 1009.6 |
| 20260505071540 | 21 | 360 | 6.4 | 27.4 | 0.00 | 0.00 | 0.00 | 84 | 1009.6 |
| 20260505071424 | 21 | 360 | 6.4 | 29.0 | 0.00 | 0.00 | 0.00 | 84 | 1009.7 |
| 20260505071326 | 21 | 360 | 8.0 | 29.0 | 0.00 | 0.00 | 0.00 | 84 | 1009.7 |
| 20260505071225 | 21 | 360 | 8.0 | 29.0 | 0.00 | 0.00 | 0.00 | 84 | 1009.7 |
| 20260505071126 | 21 | 360 | 8.0 | 33.8 | 0.00 | 0.00 | 0.00 | 84 | 1009.7 |
| 20260505071026 | 21 | 360 | 8.0 | 33.8 | 0.00 | 0.00 | 0.00 | 84 | 1009.7 |
| 20260505070947 | 21 | 360 | 9.7 | 33.8 | 0.00 | 0.00 | 0.00 | 84 | 1009.7 |
| 20260505070826 | 21 | 360 | 11.3 | 33.8 | 0.00 | 0.00 | 0.00 | 84 | 1009.7 |
| 20260505070731 | 21 | 360 | 11.3 | 33.8 | 0.00 | 0.00 | 0.00 | 84 | 1009.8 |
| 20260505070632 | 21 | 360 | 11.3 | 33.8 | 0.00 | 0.00 | 0.00 | 84 | 1009.8 |
| 20260505070533 | 21 | 360 | 11.3 | 33.8 | 0.00 | 0.00 | 0.00 | 84 | 1009.8 |
| 20260505070434 | 21 | 360 | 12.9 | 33.8 | 0.00 | 0.00 | 0.00 | 84 | 1009.7 |
| 20260505070335 | 21 | 360 | 11.3 | 33.8 | 0.00 | 0.00 | 0.00 | 84 | 1009.7 |
| 20260505070235 | 21 | 360 | 11.3 | 33.8 | 0.00 | 0.00 | 0.00 | 84 | 1009.7 |
| 20260505070120 | 21 | 360 | 11.3 | 33.8 | 0.00 | 0.00 | 0.00 | 84 | 1009.8 |
| 20260505070019 | 21 | 360 | 12.9 | 33.8 | 0.00 | 0.00 | 0.00 | 84 | 1009.8 |
| 20260505065940 | 21 | 360 | 11.3 | 33.8 | 0.00 | 0.00 | 0.00 | 84 | 1009.8 |
| 20260505065823 | 21 | 360 | 11.3 | 33.8 | 0.00 | 0.00 | 0.00 | 84 | 1009.8 |
| 20260505065723 | 21 | 360 | 12.9 | 33.8 | 0.00 | 0.00 | 0.00 | 84 | 1009.8 |
| 20260505065623 | 21 | 360 | 12.9 | 33.8 | 0.00 | 0.00 | 0.00 | 84 | 1009.9 |
| 20260505065523 | 21 | 360 | 14.5 | 33.8 | 0.00 | 0.00 | 0.00 | 84 | 1009.8 |
| 20260505065421 | 21 | 360 | 12.9 | 33.8 | 0.00 | 0.00 | 0.00 | 84 | 1009.9 |
| 20260505065322 | 21 | 360 | 14.5 | 33.8 | 0.00 | 0.00 | 0.00 | 84 | 1009.9 |
| 20260505065226 | 21 | 360 | 14.5 | 33.8 | 0.00 | 0.00 | 0.00 | 84 | 1009.9 |
| 20260505065126 | 21 | 360 | 12.9 | 33.8 | 0.00 | 0.00 | 0.00 | 84 | 1009.9 |
| 20260505065047 | 21 | 360 | 12.9 | 33.8 | 0.00 | 0.00 | 0.00 | 84 | 1009.9 |
| 20260505064927 | 21 | 360 | 9.7 | 30.6 | 0.00 | 0.00 | 0.00 | 84 | 1009.9 |
| 20260505064846 | 21 | 360 | 11.3 | 30.6 | 0.00 | 0.00 | 0.00 | 84 | 1009.9 |
| 20260505064746 | 21 | 360 | 11.3 | 30.6 | 0.00 | 0.00 | 0.00 | 84 | 1010.0 |
| 20260505064626 | 21 | 360 | 11.3 | 30.6 | 0.00 | 0.00 | 0.00 | 84 | 1010.0 |
| 20260505064545 | 21 | 360 | 9.7 | 30.6 | 0.00 | 0.00 | 0.00 | 84 | 1010.0 |
| 20260505064429 | 21 | 360 | 8.0 | 27.4 | 0.00 | 0.00 | 0.00 | 84 | 1010.0 |
| 20260505064350 | 21 | 360 | 9.7 | 27.4 | 0.00 | 0.00 | 0.00 | 84 | 1010.0 |
| 20260505064229 | 21 | 360 | 8.0 | 27.4 | 0.00 | 0.00 | 0.00 | 84 | 1010.0 |
| 20260505064131 | 21 | 360 | 8.0 | 27.4 | 0.00 | 0.00 | 0.00 | 84 | 1010.0 |
| 20260505064030 | 21 | 360 | 9.7 | 30.6 | 0.00 | 0.00 | 0.00 | 84 | 1010.1 |
| 20260505063931 | 21 | 360 | 9.7 | 30.6 | 0.00 | 0.00 | 0.00 | 84 | 1010.1 |
| 20260505063830 | 21 | 360 | 9.7 | 30.6 | 0.00 | 0.00 | 0.00 | 84 | 1010.1 |
| 20260505063731 | 21 | 360 | 8.0 | 30.6 | 0.00 | 0.00 | 0.00 | 84 | 1010.1 |
| 20260505063634 | 21 | 360 | 9.7 | 30.6 | 0.00 | 0.00 | 0.00 | 84 | 1010.1 |
| 20260505063555 | 21 | 360 | 9.7 | 30.6 | 0.00 | 0.00 | 0.00 | 84 | 1010.2 |
| 20260505063435 | 21 | 360 | 9.7 | 30.6 | 0.00 | 0.00 | 0.00 | 84 | 1010.1 |
| 20260505063335 | 21 | 360 | 11.3 | 30.6 | 0.00 | 0.00 | 0.00 | 84 | 1010.1 |
| 20260505063235 | 21 | 360 | 14.5 | 30.6 | 0.00 | 0.00 | 0.00 | 84 | 1010.2 |
| 20260505063116 | 21 | 360 | 14.5 | 30.6 | 0.00 | 0.00 | 0.00 | 84 | 1010.1 |
| 20260505063021 | 21 | 360 | 14.5 | 30.6 | 0.00 | 0.00 | 0.00 | 84 | 1010.2 |
| 20260505062941 | 21 | 360 | 12.9 | 30.6 | 0.00 | 0.00 | 0.00 | 84 | 1010.2 |
| 20260505062821 | 21 | 360 | 9.7 | 30.6 | 0.00 | 0.00 | 0.00 | 84 | 1010.3 |
| 20260505062721 | 21 | 360 | 12.9 | 40.2 | 0.00 | 0.00 | 0.00 | 84 | 1010.3 |
| 20260505062620 | 21 | 360 | 12.9 | 40.2 | 0.00 | 0.00 | 0.00 | 84 | 1010.3 |
| 20260505062521 | 21 | 360 | 11.3 | 40.2 | 0.00 | 0.00 | 0.00 | 84 | 1010.3 |
| 20260505062422 | 21 | 360 | 11.3 | 40.2 | 0.00 | 0.00 | 0.00 | 84 | 1010.4 |
| 20260505062323 | 21 | 360 | 11.3 | 40.2 | 0.00 | 0.00 | 0.00 | 84 | 1010.3 |
| 20260505062228 | 21 | 360 | 12.9 | 40.2 | 0.00 | 0.00 | 0.00 | 84 | 1010.3 |
| 20260505062129 | 21 | 360 | 11.3 | 40.2 | 0.00 | 0.00 | 0.00 | 84 | 1010.3 |
| 20260505062030 | 21 | 360 | 9.7 | 40.2 | 0.00 | 0.00 | 0.00 | 84 | 1010.3 |
| 20260505061950 | 21 | 360 | 9.7 | 40.2 | 0.00 | 0.00 | 0.00 | 84 | 1010.4 |
| 20260505061829 | 21 | 360 | 11.3 | 40.2 | 0.00 | 0.00 | 0.00 | 84 | 1010.4 |
| 20260505061730 | 21 | 360 | 11.3 | 40.2 | 0.00 | 0.00 | 0.00 | 84 | 1010.4 |
| 20260505061630 | 21 | 360 | 12.9 | 40.2 | 0.00 | 0.00 | 0.00 | 84 | 1010.4 |
| 20260505061535 | 21 | 360 | 12.9 | 40.2 | 0.00 | 0.00 | 0.00 | 84 | 1010.4 |
| 20260505061435 | 21 | 360 | 12.9 | 40.2 | 0.00 | 0.00 | 0.00 | 84 | 1010.4 |
| 20260505061335 | 21 | 360 | 12.9 | 40.2 | 0.00 | 0.00 | 0.00 | 84 | 1010.4 |
| 20260505061235 | 21 | 360 | 12.9 | 29.0 | 0.00 | 0.00 | 0.00 | 84 | 1010.4 |
| 20260505061136 | 21 | 360 | 12.9 | 29.0 | 0.00 | 0.00 | 0.00 | 84 | 1010.4 |
| 20260505061056 | 21 | 360 | 12.9 | 29.0 | 0.00 | 0.00 | 0.00 | 84 | 1010.4 |
| 20260505060921 | 21 | 360 | 11.3 | 29.0 | 0.00 | 0.00 | 0.00 | 84 | 1010.4 |
| 20260505060822 | 21 | 360 | 9.7 | 29.0 | 0.00 | 0.00 | 0.00 | 84 | 1010.3 |
| 20260505060742 | 21 | 360 | 9.7 | 29.0 | 0.00 | 0.00 | 0.00 | 84 | 1010.4 |
| 20260505060622 | 21 | 360 | 8.0 | 33.8 | 0.00 | 0.00 | 0.00 | 84 | 1010.4 |
| 20260505060522 | 21 | 360 | 8.0 | 33.8 | 0.00 | 0.00 | 0.00 | 84 | 1010.4 |
| 20260505060422 | 21 | 360 | 8.0 | 33.8 | 0.00 | 0.00 | 0.00 | 84 | 1010.4 |
| 20260505060322 | 21 | 360 | 11.3 | 33.8 | 0.00 | 0.00 | 0.00 | 84 | 1010.4 |
| 20260505060226 | 21 | 360 | 11.3 | 38.6 | 0.00 | 0.00 | 0.00 | 84 | 1010.4 |
| 20260505060147 | 21 | 360 | 11.3 | 38.6 | 0.00 | 0.00 | 0.00 | 84 | 1010.4 |
| 20260505060027 | 21 | 360 | 12.9 | 38.6 | 0.00 | 0.00 | 0.00 | 84 | 1010.4 |
| 20260505055927 | 21 | 360 | 14.5 | 38.6 | 0.00 | 0.00 | 0.00 | 84 | 1010.5 |
| 20260505055829 | 21 | 360 | 14.5 | 38.6 | 0.00 | 0.00 | 0.00 | 84 | 1010.4 |
| 20260505055729 | 21 | 360 | 14.5 | 38.6 | 0.00 | 0.00 | 0.00 | 84 | 1010.5 |
| 20260505055626 | 21 | 360 | 12.9 | 45.1 | 0.00 | 0.00 | 0.00 | 84 | 1010.4 |
| 20260505055532 | 21 | 360 | 12.9 | 45.1 | 0.00 | 0.00 | 0.00 | 84 | 1010.4 |
| 20260505055432 | 21 | 360 | 12.9 | 45.1 | 0.00 | 0.00 | 0.00 | 84 | 1010.4 |
| 20260505055332 | 21 | 360 | 14.5 | 45.1 | 0.00 | 0.00 | 0.00 | 84 | 1010.3 |
| 20260505055232 | 21 | 360 | 14.5 | 45.1 | 0.00 | 0.00 | 0.00 | 84 | 1010.3 |
| 20260505055133 | 21 | 360 | 16.1 | 45.1 | 0.00 | 0.00 | 0.00 | 84 | 1010.3 |
| 20260505055034 | 21 | 360 | 17.7 | 45.1 | 0.00 | 0.00 | 0.00 | 84 | 1010.3 |
| 20260505054933 | 21 | 360 | 16.1 | 45.1 | 0.00 | 0.00 | 0.00 | 84 | 1010.4 |
| 20260505054818 | 21 | 360 | 14.5 | 40.2 | 0.00 | 0.00 | 0.00 | 84 | 1010.3 |
| 20260505054718 | 21 | 360 | 14.5 | 40.2 | 0.00 | 0.00 | 0.00 | 84 | 1010.3 |
| 20260505054619 | 21 | 360 | 14.5 | 40.2 | 0.00 | 0.00 | 0.00 | 84 | 1010.3 |
| 20260505054519 | 21 | 360 | 14.5 | 40.2 | 0.00 | 0.00 | 0.00 | 84 | 1010.3 |
| 20260505054419 | 21 | 360 | 14.5 | 40.2 | 0.00 | 0.00 | 0.00 | 84 | 1010.4 |
| 20260505054320 | 21 | 360 | 14.5 | 51.5 | 0.00 | 0.00 | 0.00 | 84 | 1010.3 |
| 20260505054221 | 21 | 360 | 16.1 | 51.5 | 0.00 | 0.00 | 0.00 | 84 | 1010.3 |
| 20260505054126 | 21 | 360 | 16.1 | 51.5 | 0.00 | 0.00 | 0.00 | 84 | 1010.3 |
| 20260505054026 | 21 | 360 | 17.7 | 51.5 | 0.00 | 0.00 | 0.00 | 84 | 1010.4 |
| 20260505053947 | 21 | 360 | 14.5 | 51.5 | 0.00 | 0.00 | 0.00 | 84 | 1010.4 |
| 20260505053825 | 21 | 360 | 14.5 | 51.5 | 0.00 | 0.00 | 0.00 | 84 | 1010.4 |
| 20260505053747 | 21 | 360 | 14.5 | 51.5 | 0.00 | 0.00 | 0.00 | 84 | 1010.5 |
| 20260505053627 | 21 | 360 | 14.5 | 51.5 | 0.00 | 0.00 | 0.00 | 84 | 1010.5 |
| 20260505053526 | 21 | 360 | 16.1 | 51.5 | 0.00 | 0.00 | 0.00 | 84 | 1010.5 |
| 20260505053431 | 21 | 360 | 17.7 | 51.5 | 0.00 | 0.00 | 0.00 | 84 | 1010.4 |
| 20260505053352 | 21 | 360 | 17.7 | 51.5 | 0.00 | 0.00 | 0.00 | 84 | 1010.4 |
| 20260505053232 | 21 | 360 | 17.7 | 51.5 | 0.00 | 0.00 | 0.00 | 84 | 1010.4 |
| 20260505053133 | 21 | 360 | 16.1 | 40.2 | 0.00 | 0.00 | 0.00 | 84 | 1010.3 |
| 20260505053033 | 21 | 360 | 17.7 | 40.2 | 0.00 | 0.00 | 0.00 | 84 | 1010.3 |
| 20260505052934 | 21 | 360 | 16.1 | 33.8 | 0.00 | 0.00 | 0.00 | 84 | 1010.2 |
| 20260505052836 | 21 | 360 | 16.1 | 33.8 | 0.00 | 0.00 | 0.00 | 84 | 1010.3 |
| 20260505052720 | 21 | 360 | 16.1 | 33.8 | 0.00 | 0.00 | 0.00 | 84 | 1010.3 |
| 20260505052619 | 21 | 360 | 16.1 | 33.8 | 0.00 | 0.00 | 0.00 | 84 | 1010.3 |
| 20260505052520 | 21 | 360 | 16.1 | 33.8 | 0.00 | 0.00 | 0.00 | 84 | 1010.3 |
| 20260505052441 | 21 | 360 | 14.5 | 33.8 | 0.00 | 0.00 | 0.00 | 84 | 1010.3 |
| 20260505052321 | 21 | 360 | 14.5 | 33.8 | 0.00 | 0.00 | 0.00 | 84 | 1010.3 |
| 20260505052221 | 21 | 360 | 11.3 | 33.8 | 0.00 | 0.00 | 0.00 | 84 | 1010.3 |
| 20260505052121 | 21 | 360 | 12.9 | 33.8 | 0.00 | 0.00 | 0.00 | 84 | 1010.3 |
| 20260505052026 | 21 | 360 | 11.3 | 33.8 | 0.00 | 0.00 | 0.00 | 84 | 1010.3 |
| 20260505051926 | 21 | 360 | 12.9 | 33.8 | 0.00 | 0.00 | 0.00 | 84 | 1010.3 |
| 20260505051827 | 21 | 360 | 12.9 | 33.8 | 0.00 | 0.00 | 0.00 | 84 | 1010.3 |
| 20260505051726 | 21 | 360 | 12.9 | 33.8 | 0.00 | 0.00 | 0.00 | 84 | 1010.4 |
| 20260505051628 | 21 | 360 | 12.9 | 33.8 | 0.00 | 0.00 | 0.00 | 84 | 1010.3 |
| 20260505051528 | 21 | 360 | 12.9 | 27.4 | 0.00 | 0.00 | 0.00 | 84 | 1010.4 |
| 20260505051449 | 21 | 360 | 12.9 | 27.4 | 0.00 | 0.00 | 0.00 | 84 | 1010.4 |
| 20260505051332 | 21 | 360 | 11.3 | 30.6 | 0.00 | 0.00 | 0.00 | 84 | 1010.4 |
| 20260505051232 | 21 | 360 | 12.9 | 30.6 | 0.00 | 0.00 | 0.00 | 84 | 1010.3 |
| 20260505051134 | 21 | 360 | 12.9 | 30.6 | 0.00 | 0.00 | 0.00 | 84 | 1010.4 |
| 20260505051034 | 21 | 360 | 12.9 | 30.6 | 0.00 | 0.00 | 0.00 | 84 | 1010.3 |
| 20260505050934 | 21 | 360 | 14.5 | 30.6 | 0.00 | 0.00 | 0.00 | 84 | 1010.3 |
| 20260505050835 | 21 | 360 | 14.5 | 30.6 | 0.00 | 0.00 | 0.00 | 84 | 1010.4 |
| 20260505050719 | 21 | 360 | 14.5 | 25.7 | 0.00 | 0.00 | 0.00 | 84 | 1010.3 |
| 20260505050620 | 21 | 360 | 14.5 | 25.7 | 0.00 | 0.00 | 0.00 | 84 | 1010.2 |
| 20260505050539 | 21 | 360 | 12.9 | 25.7 | 0.00 | 0.00 | 0.00 | 84 | 1010.2 |
| 20260505050419 | 21 | 360 | 11.3 | 25.7 | 0.00 | 0.00 | 0.00 | 84 | 1010.2 |
| 20260505050319 | 21 | 360 | 9.7 | 25.7 | 0.00 | 0.00 | 0.00 | 84 | 1010.2 |
| 20260505050240 | 21 | 360 | 9.7 | 25.7 | 0.00 | 0.00 | 0.00 | 84 | 1010.3 |
| 20260505050120 | 21 | 360 | 9.7 | 25.7 | 0.00 | 0.00 | 0.00 | 83 | 1010.4 |
| 20260505041727 | 22 | 360 | 14.5 | 30.6 | 0.00 | 0.00 | 0.00 | 82 | 1010.2 |
| 20260505041651 | 22 | 360 | 16.1 | 30.6 | 0.00 | 0.00 | 0.00 | 82 | 1010.2 |
| 20260505041532 | 22 | 360 | 16.1 | 30.6 | 0.00 | 0.00 | 0.00 | 82 | 1010.2 |
| 20260505041432 | 22 | 360 | 17.7 | 30.6 | 0.00 | 0.00 | 0.00 | 81 | 1010.3 |
| 20260505041333 | 22 | 360 | 16.1 | 30.6 | 0.00 | 0.00 | 0.00 | 81 | 1010.2 |
| 20260505041253 | 22 | 360 | 14.5 | 30.6 | 0.00 | 0.00 | 0.00 | 81 | 1010.2 |
| 20260505041132 | 22 | 360 | 16.1 | 30.6 | 0.00 | 0.00 | 0.00 | 81 | 1010.2 |
| 20260505041032 | 22 | 360 | 16.1 | 30.6 | 0.00 | 0.00 | 0.00 | 81 | 1010.2 |
| 20260505040917 | 22 | 360 | 16.1 | 35.4 | 0.00 | 0.00 | 0.00 | 81 | 1010.2 |
| 20260505040818 | 22 | 360 | 16.1 | 35.4 | 0.00 | 0.00 | 0.00 | 81 | 1010.2 |
| 20260505040718 | 22 | 360 | 16.1 | 35.4 | 0.00 | 0.00 | 0.00 | 81 | 1010.2 |
| 20260505040618 | 22 | 360 | 17.7 | 35.4 | 0.00 | 0.00 | 0.00 | 81 | 1010.2 |
| 20260505040519 | 22 | 360 | 17.7 | 30.6 | 0.00 | 0.00 | 0.00 | 81 | 1010.3 |
| 20260505040439 | 22 | 360 | 17.7 | 30.6 | 0.00 | 0.00 | 0.00 | 81 | 1010.2 |
| 20260505040319 | 22 | 360 | 17.7 | 30.6 | 0.00 | 0.00 | 0.00 | 81 | 1010.3 |
| 20260505040238 | 22 | 360 | 17.7 | 30.6 | 0.00 | 0.00 | 0.00 | 81 | 1010.3 |
| 20260505040122 | 22 | 360 | 17.7 | 30.6 | 0.00 | 0.00 | 0.00 | 81 | 1010.3 |
| 20260505040023 | 22 | 360 | 17.7 | 30.6 | 0.00 | 0.00 | 0.00 | 81 | 1010.3 |
| 20260505035924 | 22 | 360 | 16.1 | 38.6 | 0.00 | 0.00 | 0.00 | 81 | 1010.2 |
| 20260505035825 | 22 | 360 | 17.7 | 38.6 | 0.00 | 0.00 | 0.00 | 81 | 1010.2 |
| 20260505035724 | 22 | 360 | 19.3 | 38.6 | 0.00 | 0.00 | 0.00 | 81 | 1010.3 |
| 20260505035625 | 22 | 360 | 19.3 | 38.6 | 0.00 | 0.00 | 0.00 | 80 | 1010.2 |
| 20260505035529 | 22 | 360 | 20.9 | 38.6 | 0.00 | 0.00 | 0.00 | 80 | 1010.2 |
| 20260505035430 | 22 | 360 | 20.9 | 38.6 | 0.00 | 0.00 | 0.00 | 80 | 1010.3 |
| 20260505035330 | 22 | 360 | 20.9 | 38.6 | 0.00 | 0.00 | 0.00 | 80 | 1010.3 |
| 20260505035250 | 22 | 360 | 20.9 | 38.6 | 0.00 | 0.00 | 0.00 | 80 | 1010.4 |
| 20260505035130 | 22 | 360 | 20.9 | 38.6 | 0.00 | 0.00 | 0.00 | 80 | 1010.3 |
| 20260505035051 | 22 | 360 | 20.9 | 38.6 | 0.00 | 0.00 | 0.00 | 80 | 1010.3 |
| 20260505034930 | 22 | 360 | 19.3 | 32.2 | 0.00 | 0.00 | 0.00 | 80 | 1010.3 |
| 20260505034831 | 22 | 360 | 17.7 | 32.2 | 0.00 | 0.00 | 0.00 | 80 | 1010.3 |
| 20260505034716 | 22 | 360 | 16.1 | 29.0 | 0.00 | 0.00 | 0.00 | 80 | 1010.2 |
| 20260505034636 | 22 | 360 | 16.1 | 29.0 | 0.00 | 0.00 | 0.00 | 80 | 1010.2 |
| 20260505034534 | 22 | 360 | 16.1 | 32.2 | 0.00 | 0.00 | 0.00 | 80 | 1010.2 |
| 20260505034455 | 22 | 360 | 16.1 | 32.2 | 0.00 | 0.00 | 0.00 | 80 | 1010.3 |
| 20260505034336 | 22 | 360 | 17.7 | 32.2 | 0.00 | 0.00 | 0.00 | 80 | 1010.3 |
| 20260505034235 | 22 | 360 | 19.3 | 32.2 | 0.00 | 0.00 | 0.00 | 80 | 1010.3 |
| 20260505034120 | 22 | 360 | 19.3 | 35.4 | 0.00 | 0.00 | 0.00 | 80 | 1010.2 |
| 20260505034020 | 22 | 360 | 19.3 | 35.4 | 0.00 | 0.00 | 0.00 | 80 | 1010.3 |
| 20260505033940 | 22 | 360 | 19.3 | 35.4 | 0.00 | 0.00 | 0.00 | 80 | 1010.2 |
| 20260505033820 | 22 | 360 | 20.9 | 35.4 | 0.00 | 0.00 | 0.00 | 80 | 1010.2 |
| 20260505033721 | 22 | 360 | 19.3 | 35.4 | 0.00 | 0.00 | 0.00 | 80 | 1010.2 |
| 20260505033622 | 22 | 360 | 17.7 | 35.4 | 0.00 | 0.00 | 0.00 | 80 | 1010.3 |
| 20260505033522 | 22 | 360 | 16.1 | 35.4 | 0.00 | 0.00 | 0.00 | 80 | 1010.3 |
| 20260505033427 | 22 | 360 | 16.1 | 35.4 | 0.00 | 0.00 | 0.00 | 80 | 1010.3 |
| 20260505033328 | 22 | 360 | 16.1 | 35.4 | 0.00 | 0.00 | 0.00 | 80 | 1010.3 |
| 20260505033228 | 22 | 360 | 14.5 | 35.4 | 0.00 | 0.00 | 0.00 | 80 | 1010.2 |
| 20260505033130 | 22 | 360 | 14.5 | 35.4 | 0.00 | 0.00 | 0.00 | 80 | 1010.3 |
| 20260505033030 | 22 | 360 | 14.5 | 35.4 | 0.00 | 0.00 | 0.00 | 80 | 1010.3 |
| 20260505032930 | 22 | 360 | 14.5 | 35.4 | 0.00 | 0.00 | 0.00 | 80 | 1010.3 |
| 20260505032831 | 22 | 360 | 12.9 | 29.0 | 0.00 | 0.00 | 0.00 | 79 | 1010.4 |
| 20260505032736 | 22 | 360 | 12.9 | 29.0 | 0.00 | 0.00 | 0.00 | 79 | 1010.4 |
| 20260505032635 | 22 | 360 | 14.5 | 29.0 | 0.00 | 0.00 | 0.00 | 79 | 1010.3 |
| 20260505032517 | 22 | 360 | 14.5 | 29.0 | 0.00 | 0.00 | 0.00 | 79 | 1010.4 |
| 20260505032417 | 22 | 360 | 14.5 | 32.2 | 0.00 | 0.00 | 0.00 | 79 | 1010.3 |
| 20260505032318 | 22 | 360 | 14.5 | 32.2 | 0.00 | 0.00 | 0.00 | 79 | 1010.4 |
| 20260505032218 | 22 | 360 | 16.1 | 32.2 | 0.00 | 0.00 | 0.00 | 79 | 1010.3 |
| 20260505032122 | 22 | 360 | 16.1 | 32.2 | 0.00 | 0.00 | 0.00 | 79 | 1010.3 |
| 20260505032022 | 22 | 360 | 17.7 | 32.2 | 0.00 | 0.00 | 0.00 | 79 | 1010.3 |
| 20260505031923 | 22 | 360 | 16.1 | 32.2 | 0.00 | 0.00 | 0.00 | 79 | 1010.2 |
| 20260505031824 | 22 | 360 | 14.5 | 32.2 | 0.00 | 0.00 | 0.00 | 79 | 1010.2 |
| 20260505031726 | 23 | 360 | 14.5 | 32.2 | 0.00 | 0.00 | 0.00 | 79 | 1010.2 |
| 20260505031626 | 23 | 360 | 14.5 | 32.2 | 0.00 | 0.00 | 0.00 | 79 | 1010.2 |
| 20260505031546 | 23 | 360 | 14.5 | 32.2 | 0.00 | 0.00 | 0.00 | 79 | 1010.2 |
| 20260505031430 | 23 | 360 | 14.5 | 32.2 | 0.00 | 0.00 | 0.00 | 79 | 1010.2 |
| 20260505031351 | 23 | 360 | 14.5 | 32.2 | 0.00 | 0.00 | 0.00 | 79 | 1010.2 |
| 20260505031230 | 23 | 360 | 12.9 | 32.2 | 0.00 | 0.00 | 0.00 | 79 | 1010.3 |
| 20260505031130 | 23 | 360 | 14.5 | 29.0 | 0.00 | 0.00 | 0.00 | 79 | 1010.2 |
| 20260505031029 | 23 | 360 | 16.1 | 29.0 | 0.00 | 0.00 | 0.00 | 79 | 1010.3 |
| 20260505030930 | 23 | 360 | 14.5 | 29.0 | 0.00 | 0.00 | 0.00 | 79 | 1010.3 |
| 20260505030830 | 23 | 360 | 14.5 | 29.0 | 0.00 | 0.00 | 0.00 | 79 | 1010.3 |
| 20260505030751 | 23 | 360 | 16.1 | 29.0 | 0.00 | 0.00 | 0.00 | 79 | 1010.3 |
| 20260505030654 | 23 | 360 | 14.5 | 29.0 | 0.00 | 0.00 | 0.00 | 79 | 1010.3 |
| 20260505030553 | 23 | 360 | 14.5 | 25.7 | 0.00 | 0.00 | 0.00 | 79 | 1010.3 |
| 20260505030433 | 23 | 360 | 14.5 | 25.7 | 0.00 | 0.00 | 0.00 | 79 | 1010.2 |
| 20260505030333 | 23 | 360 | 14.5 | 25.7 | 0.00 | 0.00 | 0.00 | 79 | 1010.3 |
| 20260505030234 | 23 | 360 | 12.9 | 24.1 | 0.00 | 0.00 | 0.00 | 79 | 1010.3 |
| 20260505030154 | 23 | 360 | 12.9 | 24.1 | 0.00 | 0.00 | 0.00 | 79 | 1010.3 |
| 20260505030033 | 23 | 360 | 11.3 | 22.5 | 0.00 | 0.00 | 0.00 | 79 | 1010.3 |
| 20260505025918 | 23 | 360 | 11.3 | 22.5 | 0.00 | 0.00 | 0.00 | 79 | 1010.2 |
| 20260505025819 | 23 | 360 | 11.3 | 22.5 | 0.00 | 0.00 | 0.00 | 78 | 1010.3 |
| 20260505025719 | 23 | 360 | 11.3 | 22.5 | 0.00 | 0.00 | 0.00 | 78 | 1010.2 |
| 20260505025639 | 23 | 360 | 11.3 | 24.1 | 0.00 | 0.00 | 0.00 | 78 | 1010.3 |
| 20260505025519 | 23 | 360 | 12.9 | 24.1 | 0.00 | 0.00 | 0.00 | 78 | 1010.4 |
| 20260505025441 | 23 | 360 | 12.9 | 24.1 | 0.00 | 0.00 | 0.00 | 78 | 1010.4 |
| 20260505025319 | 23 | 360 | 12.9 | 24.1 | 0.00 | 0.00 | 0.00 | 78 | 1010.4 |
| 20260505025220 | 23 | 360 | 11.3 | 24.1 | 0.00 | 0.00 | 0.00 | 78 | 1010.4 |
| 20260505025124 | 23 | 360 | 12.9 | 24.1 | 0.00 | 0.00 | 0.00 | 78 | 1010.3 |
| 20260505025025 | 23 | 360 | 12.9 | 24.1 | 0.00 | 0.00 | 0.00 | 78 | 1010.3 |
| 20260505024925 | 23 | 360 | 12.9 | 24.1 | 0.00 | 0.00 | 0.00 | 78 | 1010.3 |
| 20260505024826 | 23 | 360 | 11.3 | 25.7 | 0.00 | 0.00 | 0.00 | 78 | 1010.3 |
| 20260505024725 | 23 | 360 | 11.3 | 25.7 | 0.00 | 0.00 | 0.00 | 78 | 1010.2 |
| 20260505024646 | 23 | 360 | 9.7 | 25.7 | 0.00 | 0.00 | 0.00 | 78 | 1010.3 |
| 20260505024526 | 23 | 360 | 9.7 | 25.7 | 0.00 | 0.00 | 0.00 | 78 | 1010.3 |
| 20260505024430 | 23 | 360 | 9.7 | 25.7 | 0.00 | 0.00 | 0.00 | 77 | 1010.3 |
| 20260505024331 | 23 | 360 | 9.7 | 25.7 | 0.00 | 0.00 | 0.00 | 77 | 1010.2 |
| 20260505024231 | 23 | 360 | 9.7 | 25.7 | 0.00 | 0.00 | 0.00 | 77 | 1010.3 |
| 20260505024131 | 23 | 360 | 9.7 | 25.7 | 0.00 | 0.00 | 0.00 | 77 | 1010.3 |
| 20260505024052 | 23 | 360 | 9.7 | 25.7 | 0.00 | 0.00 | 0.00 | 77 | 1010.3 |
| 20260505023932 | 23 | 360 | 9.7 | 25.7 | 0.00 | 0.00 | 0.00 | 77 | 1010.3 |
| 20260505023816 | 23 | 360 | 9.7 | 20.9 | 0.00 | 0.00 | 0.00 | 77 | 1010.3 |
| 20260505023717 | 23 | 360 | 11.3 | 20.9 | 0.00 | 0.00 | 0.00 | 77 | 1010.3 |
| 20260505023617 | 23 | 360 | 11.3 | 20.9 | 0.00 | 0.00 | 0.00 | 77 | 1010.3 |
| 20260505023518 | 23 | 360 | 11.3 | 20.9 | 0.00 | 0.00 | 0.00 | 77 | 1010.3 |
| 20260505023419 | 23 | 360 | 11.3 | 20.9 | 0.00 | 0.00 | 0.00 | 77 | 1010.3 |
| 20260505023339 | 23 | 360 | 11.3 | 20.9 | 0.00 | 0.00 | 0.00 | 77 | 1010.3 |
| 20260505023238 | 23 | 360 | 11.3 | 20.9 | 0.00 | 0.00 | 0.00 | 77 | 1010.3 |
| 20260505023119 | 23 | 360 | 12.9 | 20.9 | 0.00 | 0.00 | 0.00 | 77 | 1010.3 |
| 20260505023024 | 23 | 360 | 12.9 | 20.9 | 0.00 | 0.00 | 0.00 | 77 | 1010.3 |
| 20260505022924 | 23 | 360 | 11.3 | 20.9 | 0.00 | 0.00 | 0.00 | 77 | 1010.3 |
| 20260505022825 | 23 | 360 | 9.7 | 20.9 | 0.00 | 0.00 | 0.00 | 77 | 1010.2 |
| 20260505022724 | 23 | 360 | 11.3 | 20.9 | 0.00 | 0.00 | 0.00 | 77 | 1010.2 |
| 20260505022625 | 23 | 360 | 11.3 | 20.9 | 0.00 | 0.00 | 0.00 | 77 | 1010.1 |
| 20260505022525 | 23 | 360 | 9.7 | 20.9 | 0.00 | 0.00 | 0.00 | 77 | 1010.3 |
| 20260505022430 | 23 | 360 | 9.7 | 20.9 | 0.00 | 0.00 | 0.00 | 76 | 1010.3 |
| 20260505022331 | 23 | 360 | 9.7 | 20.9 | 0.00 | 0.00 | 0.00 | 76 | 1010.2 |
| 20260505022232 | 23 | 360 | 11.3 | 20.9 | 0.00 | 0.00 | 0.00 | 76 | 1010.2 |
| 20260505022132 | 23 | 360 | 11.3 | 20.9 | 0.00 | 0.00 | 0.00 | 76 | 1010.2 |
| 20260505022032 | 23 | 360 | 11.3 | 20.9 | 0.00 | 0.00 | 0.00 | 76 | 1010.2 |
| 20260505021933 | 23 | 360 | 11.3 | 20.9 | 0.00 | 0.00 | 0.00 | 76 | 1010.2 |
| 20260505021819 | 23 | 360 | 12.9 | 20.9 | 0.00 | 0.00 | 0.00 | 76 | 1010.2 |
| 20260505021720 | 23 | 360 | 12.9 | 20.9 | 0.00 | 0.00 | 0.00 | 76 | 1010.1 |
| 20260505021621 | 23 | 360 | 11.3 | 20.9 | 0.00 | 0.00 | 0.00 | 76 | 1010.2 |
| 20260505021543 | 23 | 360 | 11.3 | 20.9 | 0.00 | 0.00 | 0.00 | 76 | 1010.2 |
| 20260505021416 | 23 | 360 | 11.3 | 20.9 | 0.00 | 0.00 | 0.00 | 76 | 1010.1 |
| 20260505021316 | 23 | 360 | 11.3 | 20.9 | 0.00 | 0.00 | 0.00 | 75 | 1010.2 |
| 20260505021216 | 23 | 360 | 11.3 | 20.9 | 0.00 | 0.00 | 0.00 | 75 | 1010.2 |
| 20260505021121 | 23 | 360 | 11.3 | 20.9 | 0.00 | 0.00 | 0.00 | 75 | 1010.2 |
| 20260505021021 | 23 | 360 | 11.3 | 20.9 | 0.00 | 0.00 | 0.00 | 75 | 1010.2 |
| 20260505020921 | 23 | 360 | 9.7 | 20.9 | 0.00 | 0.00 | 0.00 | 75 | 1010.2 |
| 20260505020823 | 23 | 360 | 9.7 | 20.9 | 0.00 | 0.00 | 0.00 | 75 | 1010.2 |
| 20260505020724 | 23 | 360 | 11.3 | 20.9 | 0.00 | 0.00 | 0.00 | 75 | 1010.1 |
| 20260505020645 | 23 | 360 | 11.3 | 20.9 | 0.00 | 0.00 | 0.00 | 74 | 1010.2 |
| 20260505020524 | 23 | 360 | 11.3 | 20.9 | 0.00 | 0.00 | 0.00 | 74 | 1010.1 |
| 20260505020429 | 23 | 360 | 11.3 | 20.9 | 0.00 | 0.00 | 0.00 | 74 | 1010.1 |
| 20260505020349 | 23 | 360 | 11.3 | 20.9 | 0.00 | 0.00 | 0.00 | 74 | 1010.1 |
| 20260505020229 | 23 | 360 | 11.3 | 20.9 | 0.00 | 0.00 | 0.00 | 74 | 1010.1 |
| 20260505020129 | 23 | 360 | 11.3 | 20.9 | 0.00 | 0.00 | 0.00 | 73 | 1010.2 |
| 20260505020031 | 23 | 360 | 11.3 | 20.9 | 0.00 | 0.00 | 0.00 | 73 | 1010.1 |
| 20260505015951 | 24 | 360 | 11.3 | 20.9 | 0.00 | 0.00 | 0.00 | 73 | 1010.1 |
| 20260505015830 | 24 | 360 | 9.7 | 20.9 | 0.00 | 0.00 | 0.00 | 73 | 1010.1 |
| 20260505015731 | 24 | 360 | 9.7 | 20.9 | 0.00 | 0.00 | 0.00 | 73 | 1010.1 |
| 20260505015630 | 24 | 360 | 8.0 | 19.3 | 0.00 | 0.00 | 0.00 | 73 | 1010.0 |
| 20260505015555 | 24 | 360 | 8.0 | 19.3 | 0.00 | 0.00 | 0.00 | 72 | 1010.0 |
| 20260505015453 | 24 | 360 | 8.0 | 24.1 | 0.00 | 0.00 | 0.00 | 72 | 1010.0 |
| 20260505015333 | 24 | 360 | 8.0 | 24.1 | 0.00 | 0.00 | 0.00 | 72 | 1010.0 |
| 20260505015234 | 24 | 360 | 6.4 | 24.1 | 0.00 | 0.00 | 0.00 | 72 | 1010.0 |
| 20260505015154 | 24 | 360 | 6.4 | 24.1 | 0.00 | 0.00 | 0.00 | 72 | 1010.1 |
| 20260505015034 | 24 | 360 | 8.0 | 24.1 | 0.00 | 0.00 | 0.00 | 72 | 1010.0 |
| 20260505014933 | 24 | 360 | 8.0 | 24.1 | 0.00 | 0.00 | 0.00 | 72 | 1010.1 |
| 20260505014818 | 24 | 360 | 9.7 | 24.1 | 0.00 | 0.00 | 0.00 | 72 | 1010.1 |
| 20260505014718 | 24 | 360 | 9.7 | 24.1 | 0.00 | 0.00 | 0.00 | 72 | 1010.0 |
| 20260505014639 | 24 | 360 | 9.7 | 24.1 | 0.00 | 0.00 | 0.00 | 72 | 1010.1 |
| 20260505014437 | 24 | 360 | 11.3 | 24.1 | 0.00 | 0.00 | 0.00 | 72 | 1010.0 |
| 20260505014317 | 24 | 360 | 11.3 | 24.1 | 0.00 | 0.00 | 0.00 | 72 | 1009.9 |
| 20260505014237 | 24 | 360 | 11.3 | 24.1 | 0.00 | 0.00 | 0.00 | 72 | 1009.9 |
| 20260505014116 | 24 | 360 | 11.3 | 24.1 | 0.00 | 0.00 | 0.00 | 72 | 1009.9 |
| 20260505014016 | 24 | 360 | 11.3 | 24.1 | 0.00 | 0.00 | 0.00 | 71 | 1009.9 |
| 20260505013920 | 24 | 360 | 11.3 | 24.1 | 0.00 | 0.00 | 0.00 | 71 | 1010.0 |
| 20260505013821 | 24 | 360 | 9.7 | 22.5 | 0.00 | 0.00 | 0.00 | 71 | 1010.0 |
| 20260505013721 | 24 | 360 | 9.7 | 22.5 | 0.00 | 0.00 | 0.00 | 71 | 1009.9 |
| 20260505013622 | 24 | 360 | 8.0 | 20.9 | 0.00 | 0.00 | 0.00 | 71 | 1010.0 |
| 20260505013519 | 24 | 360 | 8.0 | 20.9 | 0.00 | 0.00 | 0.00 | 71 | 1010.0 |
| 20260505013439 | 24 | 360 | 9.7 | 20.9 | 0.00 | 0.00 | 0.00 | 71 | 1010.0 |
| 20260505013319 | 24 | 360 | 8.0 | 20.9 | 0.00 | 0.00 | 0.00 | 71 | 1010.0 |
| 20260505013224 | 24 | 360 | 9.7 | 20.9 | 0.00 | 0.00 | 0.00 | 71 | 1010.0 |
| 20260505013145 | 24 | 360 | 9.7 | 20.9 | 0.00 | 0.00 | 0.00 | 71 | 1009.9 |
| 20260505013020 | 24 | 360 | 9.7 | 20.9 | 0.00 | 0.00 | 0.00 | 71 | 1009.8 |
| 20260505012920 | 24 | 360 | 9.7 | 20.9 | 0.00 | 0.00 | 0.00 | 71 | 1009.8 |
| 20260505012822 | 24 | 360 | 11.3 | 20.9 | 0.00 | 0.00 | 0.00 | 71 | 1009.8 |
| 20260505012742 | 25 | 360 | 9.7 | 20.9 | 0.00 | 0.00 | 0.00 | 71 | 1009.9 |
| 20260505012621 | 25 | 360 | 9.7 | 20.9 | 0.00 | 0.00 | 0.00 | 70 | 1009.9 |
| 20260505012522 | 25 | 360 | 9.7 | 20.9 | 0.00 | 0.00 | 0.00 | 70 | 1009.9 |
| 20260505012426 | 25 | 360 | 9.7 | 20.9 | 0.00 | 0.00 | 0.00 | 70 | 1009.9 |
| 20260505012326 | 25 | 360 | 9.7 | 20.9 | 0.00 | 0.00 | 0.00 | 70 | 1009.9 |
| 20260505012246 | 25 | 360 | 8.0 | 20.9 | 0.00 | 0.00 | 0.00 | 70 | 1009.9 |
| 20260505012146 | 25 | 360 | 8.0 | 20.9 | 0.00 | 0.00 | 0.00 | 70 | 1009.9 |
| 20260505012023 | 25 | 360 | 6.4 | 19.3 | 0.00 | 0.00 | 0.00 | 70 | 1009.9 |
| 20260505011924 | 25 | 360 | 6.4 | 19.3 | 0.00 | 0.00 | 0.00 | 70 | 1009.9 |
| 20260505011845 | 25 | 360 | 6.4 | 19.3 | 0.00 | 0.00 | 0.00 | 70 | 1009.9 |
| 20260505011725 | 25 | 360 | 6.4 | 19.3 | 0.00 | 0.00 | 0.00 | 70 | 1010.0 |
| 20260505011645 | 25 | 360 | 6.4 | 19.3 | 0.00 | 0.00 | 0.00 | 70 | 1010.0 |
| 20260505011549 | 25 | 360 | 6.4 | 19.3 | 0.00 | 0.00 | 0.00 | 70 | 1010.0 |
| 20260505011428 | 25 | 360 | 8.0 | 30.6 | 0.00 | 0.00 | 0.00 | 69 | 1010.0 |
| 20260505011329 | 25 | 360 | 8.0 | 30.6 | 0.00 | 0.00 | 0.00 | 69 | 1009.9 |
| 20260505011249 | 25 | 360 | 8.0 | 30.6 | 0.00 | 0.00 | 0.00 | 69 | 1009.9 |
| 20260505011129 | 25 | 360 | 8.0 | 30.6 | 0.00 | 0.00 | 0.00 | 69 | 1009.9 |
| 20260505011030 | 25 | 360 | 9.7 | 30.6 | 0.00 | 0.00 | 0.00 | 69 | 1009.9 |
| 20260505010929 | 25 | 360 | 11.3 | 30.6 | 0.00 | 0.00 | 0.00 | 69 | 1009.9 |
| 20260505010834 | 25 | 360 | 12.9 | 30.6 | 0.00 | 0.00 | 0.00 | 69 | 1009.8 |
| 20260505010734 | 25 | 360 | 14.5 | 30.6 | 0.00 | 0.00 | 0.00 | 69 | 1009.8 |
| 20260505010635 | 25 | 360 | 14.5 | 30.6 | 0.00 | 0.00 | 0.00 | 69 | 1009.7 |
| 20260505010555 | 25 | 360 | 14.5 | 30.6 | 0.00 | 0.00 | 0.00 | 69 | 1009.7 |
| 20260505010434 | 25 | 360 | 14.5 | 32.2 | 0.00 | 0.00 | 0.00 | 69 | 1009.7 |
| 20260505010335 | 25 | 360 | 12.9 | 32.2 | 0.00 | 0.00 | 0.00 | 69 | 1009.8 |
| 20260505010216 | 25 | 360 | 11.3 | 32.2 | 0.00 | 0.00 | 0.00 | 69 | 1009.8 |
| 20260505010121 | 25 | 360 | 11.3 | 32.2 | 0.00 | 0.00 | 0.00 | 69 | 1009.8 |
| 20260505010020 | 25 | 360 | 12.9 | 32.2 | 0.00 | 0.00 | 0.00 | 68 | 1009.8 |
| 20260505005941 | 25 | 360 | 12.9 | 32.2 | 0.00 | 0.00 | 0.00 | 68 | 1009.8 |
| 20260505005822 | 25 | 360 | 12.9 | 32.2 | 0.00 | 0.00 | 0.00 | 68 | 1009.9 |
| 20260505005721 | 25 | 360 | 12.9 | 25.7 | 0.00 | 0.00 | 0.00 | 68 | 1009.8 |
| 20260505005639 | 25 | 360 | 12.9 | 25.7 | 0.00 | 0.00 | 0.00 | 68 | 1009.8 |
| 20260505005517 | 25 | 360 | 11.3 | 25.7 | 0.00 | 0.00 | 0.00 | 68 | 1009.8 |
| 20260505005418 | 25 | 360 | 11.3 | 25.7 | 0.00 | 0.00 | 0.00 | 68 | 1009.8 |
| 20260505005322 | 25 | 360 | 11.3 | 25.7 | 0.00 | 0.00 | 0.00 | 68 | 1009.8 |
| 20260505005223 | 25 | 360 | 11.3 | 25.7 | 0.00 | 0.00 | 0.00 | 68 | 1009.8 |
| 20260505005124 | 25 | 360 | 11.3 | 27.4 | 0.00 | 0.00 | 0.00 | 67 | 1009.8 |
| 20260505005024 | 25 | 360 | 11.3 | 27.4 | 0.00 | 0.00 | 0.00 | 67 | 1009.8 |
| 20260505004924 | 25 | 360 | 12.9 | 27.4 | 0.00 | 0.00 | 0.00 | 67 | 1009.8 |
| 20260505004825 | 25 | 360 | 14.5 | 27.4 | 0.00 | 0.00 | 0.00 | 67 | 1009.9 |
| 20260505004725 | 25 | 360 | 14.5 | 27.4 | 0.00 | 0.00 | 0.00 | 67 | 1009.8 |
| 20260505004628 | 25 | 360 | 16.1 | 32.2 | 0.00 | 0.00 | 0.00 | 67 | 1009.8 |
| 20260505004549 | 25 | 360 | 16.1 | 38.6 | 0.00 | 0.00 | 0.00 | 67 | 1009.8 |
| 20260505004427 | 25 | 360 | 14.5 | 38.6 | 0.00 | 0.00 | 0.00 | 67 | 1009.7 |
| 20260505004348 | 25 | 360 | 14.5 | 38.6 | 0.00 | 0.00 | 0.00 | 67 | 1009.7 |
| 20260505004249 | 25 | 360 | 16.1 | 38.6 | 0.00 | 0.00 | 0.00 | 66 | 1009.7 |
| 20260505004128 | 25 | 360 | 14.5 | 38.6 | 0.00 | 0.00 | 0.00 | 66 | 1009.8 |
| 20260505004028 | 25 | 360 | 16.1 | 38.6 | 0.00 | 0.00 | 0.00 | 66 | 1009.7 |
| 20260505003949 | 25 | 360 | 14.5 | 35.4 | 0.00 | 0.00 | 0.00 | 66 | 1009.7 |
| 20260505003827 | 25 | 360 | 12.9 | 35.4 | 0.00 | 0.00 | 0.00 | 66 | 1009.7 |
| 20260505003732 | 25 | 360 | 12.9 | 35.4 | 0.00 | 0.00 | 0.00 | 66 | 1009.7 |
| 20260505003632 | 25 | 360 | 12.9 | 35.4 | 0.00 | 0.00 | 0.00 | 66 | 1009.7 |
| 20260505003532 | 25 | 360 | 11.3 | 24.1 | 0.00 | 0.00 | 0.00 | 66 | 1009.7 |
| 20260505003432 | 25 | 360 | 9.7 | 24.1 | 0.00 | 0.00 | 0.00 | 66 | 1009.7 |
| 20260505003332 | 25 | 360 | 8.0 | 24.1 | 0.00 | 0.00 | 0.00 | 66 | 1009.7 |
| 20260505003233 | 26 | 360 | 6.4 | 24.1 | 0.00 | 0.00 | 0.00 | 66 | 1009.6 |
| 20260505003154 | 26 | 360 | 8.0 | 24.1 | 0.00 | 0.00 | 0.00 | 66 | 1009.6 |
| 20260505003018 | 26 | 360 | 8.0 | 24.1 | 0.00 | 0.00 | 0.00 | 65 | 1009.6 |
| 20260505002919 | 26 | 360 | 8.0 | 24.1 | 0.00 | 0.00 | 0.00 | 65 | 1009.6 |
| 20260505002820 | 26 | 360 | 6.4 | 29.0 | 0.00 | 0.00 | 0.00 | 65 | 1009.6 |
| 20260505002720 | 26 | 360 | 8.0 | 32.2 | 0.00 | 0.00 | 0.00 | 65 | 1009.6 |
| 20260505002620 | 26 | 360 | 9.7 | 32.2 | 0.00 | 0.00 | 0.00 | 65 | 1009.6 |
| 20260505002521 | 26 | 360 | 11.3 | 32.2 | 0.00 | 0.00 | 0.00 | 65 | 1009.6 |
| 20260505002425 | 26 | 360 | 14.5 | 32.2 | 0.00 | 0.00 | 0.00 | 65 | 1009.7 |
| 20260505002345 | 26 | 360 | 14.5 | 32.2 | 0.00 | 0.00 | 0.00 | 65 | 1009.6 |
| 20260505002225 | 26 | 360 | 14.5 | 32.2 | 0.00 | 0.00 | 0.00 | 64 | 1009.7 |
| 20260505002125 | 26 | 360 | 16.1 | 32.2 | 0.00 | 0.00 | 0.00 | 64 | 1009.6 |
| 20260505002026 | 26 | 360 | 14.5 | 32.2 | 0.00 | 0.00 | 0.00 | 64 | 1009.6 |
| 20260505001927 | 26 | 360 | 14.5 | 32.2 | 0.00 | 0.00 | 0.00 | 65 | 1009.6 |
| 20260505001827 | 26 | 360 | 12.9 | 32.2 | 0.00 | 0.00 | 0.00 | 65 | 1009.6 |
| 20260505001731 | 26 | 360 | 12.9 | 32.2 | 0.00 | 0.00 | 0.00 | 65 | 1009.5 |
| 20260505001632 | 26 | 360 | 11.3 | 33.8 | 0.00 | 0.00 | 0.00 | 64 | 1009.6 |
| 20260505001532 | 26 | 360 | 11.3 | 33.8 | 0.00 | 0.00 | 0.00 | 64 | 1009.5 |
| 20260505001433 | 26 | 360 | 11.3 | 35.4 | 0.00 | 0.00 | 0.00 | 64 | 1009.4 |
| 20260505001333 | 26 | 360 | 11.3 | 35.4 | 0.00 | 0.00 | 0.00 | 63 | 1009.4 |
| 20260505001234 | 26 | 360 | 11.3 | 35.4 | 0.00 | 0.00 | 0.00 | 63 | 1009.5 |
| 20260505001118 | 26 | 360 | 12.9 | 35.4 | 0.00 | 0.00 | 0.00 | 63 | 1009.6 |
| 20260505001019 | 26 | 360 | 11.3 | 35.4 | 0.00 | 0.00 | 0.00 | 63 | 1009.5 |
| 20260505000918 | 26 | 360 | 12.9 | 35.4 | 0.00 | 0.00 | 0.00 | 63 | 1009.6 |
| 20260505000820 | 26 | 360 | 12.9 | 35.4 | 0.00 | 0.00 | 0.00 | 63 | 1009.5 |
| 20260505000721 | 26 | 360 | 12.9 | 35.4 | 0.00 | 0.00 | 0.00 | 63 | 1009.6 |
| 20260505000621 | 26 | 360 | 12.9 | 35.4 | 0.00 | 0.00 | 0.00 | 63 | 1009.7 |
| 20260505000521 | 26 | 360 | 12.9 | 35.4 | 0.00 | 0.00 | 0.00 | 63 | 1009.6 |
| 20260505000428 | 26 | 360 | 11.3 | 35.4 | 0.00 | 0.00 | 0.00 | 63 | 1009.6 |
| 20260505000327 | 26 | 360 | 12.9 | 38.6 | 0.00 | 0.00 | 0.00 | 63 | 1009.7 |
| 20260505000227 | 26 | 360 | 12.9 | 38.6 | 0.00 | 0.00 | 0.00 | 63 | 1009.7 |
| 20260505000128 | 26 | 360 | 12.9 | 38.6 | 0.00 | 0.00 | 0.00 | 63 | 1009.8 |
| 20260505000047 | 26 | 360 | 9.7 | 38.6 | 0.00 | 0.00 | 0.00 | 62 | 1009.7 |
| 20260504235927 | 26 | 360 | 12.9 | 38.6 | 0.00 | 0.00 | 0.00 | 62 | 1009.7 |
| 20260504235827 | 26 | 360 | 14.5 | 38.6 | 0.00 | 0.00 | 0.00 | 62 | 1009.8 |
| 20260504235752 | 26 | 360 | 17.7 | 38.6 | 0.00 | 0.00 | 0.00 | 62 | 1009.8 |
| 20260504235631 | 26 | 360 | 17.7 | 38.6 | 0.00 | 0.00 | 0.00 | 62 | 1009.8 |
| 20260504235531 | 26 | 360 | 17.7 | 38.6 | 0.00 | 0.00 | 0.00 | 62 | 1009.8 |
| 20260504235431 | 26 | 360 | 19.3 | 38.6 | 0.00 | 0.00 | 0.00 | 62 | 1009.9 |
| 20260504235332 | 26 | 360 | 19.3 | 38.6 | 0.00 | 0.00 | 0.00 | 62 | 1009.8 |
| 20260504235233 | 26 | 360 | 16.1 | 38.6 | 0.00 | 0.00 | 0.00 | 62 | 1009.9 |
| 20260504235154 | 26 | 360 | 12.9 | 33.8 | 0.00 | 0.00 | 0.00 | 62 | 1009.8 |
| 20260504235037 | 26 | 360 | 14.5 | 33.8 | 0.00 | 0.00 | 0.00 | 62 | 1009.9 |
| 20260504234937 | 26 | 360 | 14.5 | 33.8 | 0.00 | 0.00 | 0.00 | 62 | 1009.9 |
| 20260504234816 | 26 | 360 | 16.1 | 33.8 | 0.00 | 0.00 | 0.00 | 62 | 1009.9 |
| 20260504234718 | 26 | 360 | 16.1 | 40.2 | 0.00 | 0.00 | 0.00 | 62 | 1009.9 |
| 20260504234639 | 26 | 360 | 14.5 | 40.2 | 0.00 | 0.00 | 0.00 | 62 | 1009.9 |
| 20260504234519 | 26 | 360 | 12.9 | 40.2 | 0.00 | 0.00 | 0.00 | 62 | 1009.9 |
| 20260504234440 | 26 | 360 | 12.9 | 40.2 | 0.00 | 0.00 | 0.00 | 62 | 1009.8 |
| 20260504234320 | 26 | 360 | 14.5 | 40.2 | 0.00 | 0.00 | 0.00 | 62 | 1009.9 |
| 20260504234239 | 26 | 360 | 12.9 | 40.2 | 0.00 | 0.00 | 0.00 | 62 | 1009.9 |
| 20260504234143 | 26 | 360 | 12.9 | 40.2 | 0.00 | 0.00 | 0.00 | 62 | 1009.8 |
| 20260504234016 | 26 | 360 | 11.3 | 40.2 | 0.00 | 0.00 | 0.00 | 62 | 1009.9 |
| 20260504233916 | 26 | 360 | 11.3 | 40.2 | 0.00 | 0.00 | 0.00 | 62 | 1010.0 |
| 20260504233837 | 26 | 360 | 8.0 | 40.2 | 0.00 | 0.00 | 0.00 | 62 | 1010.1 |
| 20260504233716 | 26 | 360 | 8.0 | 25.7 | 0.00 | 0.00 | 0.00 | 62 | 1010.0 |
| 20260504233617 | 26 | 360 | 6.4 | 25.7 | 0.00 | 0.00 | 0.00 | 62 | 1010.1 |
| 20260504233517 | 26 | 360 | 8.0 | 25.7 | 0.00 | 0.00 | 0.00 | 62 | 1010.1 |
| 20260504233442 | 26 | 360 | 8.0 | 25.7 | 0.00 | 0.00 | 0.00 | 62 | 1010.1 |
| 20260504233321 | 26 | 360 | 8.0 | 25.7 | 0.00 | 0.00 | 0.00 | 62 | 1010.2 |
| 20260504233222 | 26 | 360 | 8.0 | 25.7 | 0.00 | 0.00 | 0.00 | 62 | 1010.3 |
| 20260504233121 | 26 | 360 | 8.0 | 25.7 | 0.00 | 0.00 | 0.00 | 62 | 1010.2 |
| 20260504233022 | 26 | 360 | 9.7 | 25.7 | 0.00 | 0.00 | 0.00 | 62 | 1010.1 |
| 20260504232922 | 26 | 360 | 8.0 | 38.6 | 0.00 | 0.00 | 0.00 | 62 | 1010.2 |
| 20260504232822 | 26 | 360 | 9.7 | 38.6 | 0.00 | 0.00 | 0.00 | 62 | 1010.3 |
| 20260504232728 | 26 | 360 | 11.3 | 38.6 | 0.00 | 0.00 | 0.00 | 61 | 1010.3 |
| 20260504232628 | 26 | 360 | 9.7 | 38.6 | 0.00 | 0.00 | 0.00 | 61 | 1010.2 |
| 20260504232527 | 26 | 360 | 11.3 | 38.6 | 0.00 | 0.00 | 0.00 | 61 | 1010.2 |
| 20260504232449 | 26 | 360 | 14.5 | 38.6 | 0.00 | 0.00 | 0.00 | 61 | 1010.2 |
| 20260504232347 | 26 | 360 | 14.5 | 38.6 | 0.00 | 0.00 | 0.00 | 61 | 1010.2 |
| 20260504232227 | 26 | 360 | 12.9 | 38.6 | 0.00 | 0.00 | 0.00 | 61 | 1010.2 |
| 20260504232127 | 26 | 360 | 14.5 | 38.6 | 0.00 | 0.00 | 0.00 | 61 | 1010.2 |
| 20260504232027 | 26 | 360 | 12.9 | 38.6 | 0.00 | 0.00 | 0.00 | 61 | 1010.2 |
| 20260504231931 | 26 | 360 | 11.3 | 35.4 | 0.00 | 0.00 | 0.00 | 61 | 1010.2 |
| 20260504231831 | 26 | 360 | 9.7 | 35.4 | 0.00 | 0.00 | 0.00 | 61 | 1010.2 |
| 20260504231732 | 26 | 360 | 9.7 | 35.4 | 0.00 | 0.00 | 0.00 | 61 | 1010.2 |
| 20260504231632 | 26 | 360 | 11.3 | 35.4 | 0.00 | 0.00 | 0.00 | 61 | 1010.2 |
| 20260504231533 | 26 | 360 | 9.7 | 35.4 | 0.00 | 0.00 | 0.00 | 61 | 1010.2 |
| 20260504231453 | 26 | 360 | 11.3 | 35.4 | 0.00 | 0.00 | 0.00 | 61 | 1010.2 |
| 20260504231353 | 27 | 360 | 12.9 | 35.4 | 0.00 | 0.00 | 0.00 | 60 | 1010.2 |
| 20260504231235 | 27 | 360 | 11.3 | 33.8 | 0.00 | 0.00 | 0.00 | 61 | 1010.2 |
| 20260504231117 | 27 | 360 | 11.3 | 33.8 | 0.00 | 0.00 | 0.00 | 61 | 1010.1 |
| 20260504231017 | 27 | 360 | 12.9 | 33.8 | 0.00 | 0.00 | 0.00 | 61 | 1010.1 |
| 20260504230917 | 26 | 360 | 11.3 | 37.0 | 0.00 | 0.00 | 0.00 | 61 | 1010.1 |
| 20260504230818 | 26 | 360 | 8.0 | 37.0 | 0.00 | 0.00 | 0.00 | 61 | 1010.1 |
| 20260504230739 | 26 | 360 | 8.0 | 37.0 | 0.00 | 0.00 | 0.00 | 62 | 1010.2 |
| 20260504230618 | 26 | 360 | 9.7 | 37.0 | 0.00 | 0.00 | 0.00 | 62 | 1010.3 |
| 20260504230543 | 26 | 360 | 9.7 | 37.0 | 0.00 | 0.00 | 0.00 | 62 | 1010.3 |
| 20260504230416 | 26 | 360 | 14.5 | 37.0 | 0.00 | 0.00 | 0.00 | 62 | 1010.3 |
| 20260504230336 | 26 | 360 | 17.7 | 37.0 | 0.00 | 0.00 | 0.00 | 62 | 1010.3 |
| 20260504230256 | 26 | 360 | 20.9 | 37.0 | 0.00 | 0.00 | 0.00 | 62 | 1010.3 |
| 20260504230116 | 26 | 360 | 19.3 | 37.0 | 0.00 | 0.00 | 0.00 | 61 | 1010.3 |
| 20260504230016 | 26 | 360 | 19.3 | 35.4 | 0.00 | 0.00 | 0.00 | 61 | 1010.4 |
| 20260504225917 | 26 | 360 | 16.1 | 35.4 | 0.00 | 0.00 | 0.00 | 61 | 1010.4 |
| 20260504225842 | 27 | 360 | 16.1 | 35.4 | 0.00 | 0.00 | 0.00 | 61 | 1010.4 |
| 20260504225720 | 27 | 360 | 12.9 | 35.4 | 0.00 | 0.00 | 0.00 | 62 | 1010.4 |
| 20260504225642 | 27 | 360 | 12.9 | 35.4 | 0.00 | 0.00 | 0.00 | 61 | 1010.4 |
| 20260504225604 | 27 | 360 | 12.9 | 35.4 | 0.00 | 0.00 | 0.00 | 61 | 1010.5 |
| 20260504225443 | 27 | 360 | 14.5 | 35.4 | 0.00 | 0.00 | 0.00 | 61 | 1010.5 |
| 20260504225316 | 27 | 360 | 11.3 | 29.0 | 0.00 | 0.00 | 0.00 | 61 | 1010.5 |
| 20260504225217 | 27 | 360 | 11.3 | 27.4 | 0.00 | 0.00 | 0.00 | 61 | 1010.4 |
| 20260504225117 | 27 | 360 | 9.7 | 27.4 | 0.00 | 0.00 | 0.00 | 61 | 1010.6 |
| 20260504225022 | 27 | 360 | 9.7 | 27.4 | 0.00 | 0.00 | 0.00 | 61 | 1010.5 |
| 20260504224942 | 27 | 360 | 9.7 | 32.2 | 0.00 | 0.00 | 0.00 | 61 | 1010.5 |
| 20260504224821 | 27 | 360 | 9.7 | 32.2 | 0.00 | 0.00 | 0.00 | 61 | 1010.6 |
| 20260504224742 | 27 | 360 | 11.3 | 35.4 | 0.00 | 0.00 | 0.00 | 61 | 1010.6 |
| 20260504224622 | 27 | 360 | 11.3 | 35.4 | 0.00 | 0.00 | 0.00 | 61 | 1010.6 |
| 20260504224522 | 27 | 360 | 12.9 | 35.4 | 0.00 | 0.00 | 0.00 | 60 | 1010.6 |
| 20260504224422 | 27 | 360 | 11.3 | 35.4 | 0.00 | 0.00 | 0.00 | 60 | 1010.5 |
| 20260504224343 | 27 | 360 | 11.3 | 35.4 | 0.00 | 0.00 | 0.00 | 60 | 1010.5 |
| 20260504224226 | 27 | 360 | 11.3 | 35.4 | 0.00 | 0.00 | 0.00 | 60 | 1010.6 |
| 20260504224127 | 27 | 360 | 11.3 | 35.4 | 0.00 | 0.00 | 0.00 | 60 | 1010.6 |
| 20260504224027 | 27 | 360 | 11.3 | 35.4 | 0.00 | 0.00 | 0.00 | 60 | 1010.6 |
| 20260504223946 | 27 | 360 | 11.3 | 35.4 | 0.00 | 0.00 | 0.00 | 60 | 1010.6 |
| 20260504223825 | 27 | 360 | 11.3 | 32.2 | 0.00 | 0.00 | 0.00 | 60 | 1010.6 |
| 20260504223727 | 27 | 360 | 11.3 | 32.2 | 0.00 | 0.00 | 0.00 | 59 | 1010.6 |
| 20260504223627 | 27 | 360 | 11.3 | 37.0 | 0.00 | 0.00 | 0.00 | 59 | 1010.7 |
| 20260504223532 | 27 | 360 | 11.3 | 37.0 | 0.00 | 0.00 | 0.00 | 60 | 1010.7 |
| 20260504223433 | 27 | 360 | 11.3 | 37.0 | 0.00 | 0.00 | 0.00 | 60 | 1010.7 |
| 20260504223333 | 27 | 360 | 11.3 | 37.0 | 0.00 | 0.00 | 0.00 | 60 | 1010.6 |
| 20260504223234 | 27 | 360 | 11.3 | 37.0 | 0.00 | 0.00 | 0.00 | 60 | 1010.7 |
| 20260504223133 | 27 | 360 | 12.9 | 37.0 | 0.00 | 0.00 | 0.00 | 60 | 1010.6 |
| 20260504223035 | 27 | 360 | 11.3 | 37.0 | 0.00 | 0.00 | 0.00 | 60 | 1010.6 |
| 20260504222920 | 27 | 360 | 12.9 | 32.2 | 0.00 | 0.00 | 0.00 | 60 | 1010.7 |
| 20260504222822 | 27 | 360 | 11.3 | 32.2 | 0.00 | 0.00 | 0.00 | 60 | 1010.7 |
| 20260504222722 | 27 | 360 | 12.9 | 32.2 | 0.00 | 0.00 | 0.00 | 60 | 1010.6 |
| 20260504222642 | 27 | 360 | 12.9 | 32.2 | 0.00 | 0.00 | 0.00 | 60 | 1010.6 |
| 20260504222603 | 27 | 360 | 11.3 | 40.2 | 0.00 | 0.00 | 0.00 | 60 | 1010.7 |
| 20260504222416 | 27 | 360 | 11.3 | 40.2 | 0.00 | 0.00 | 0.00 | 60 | 1010.7 |
| 20260504222336 | 27 | 360 | 12.9 | 40.2 | 0.00 | 0.00 | 0.00 | 60 | 1010.7 |
| 20260504222220 | 27 | 360 | 12.9 | 40.2 | 0.00 | 0.00 | 0.00 | 60 | 1010.8 |
| 20260504222121 | 27 | 360 | 14.5 | 40.2 | 0.00 | 0.00 | 0.00 | 60 | 1010.8 |
| 20260504222022 | 27 | 360 | 12.9 | 40.2 | 0.00 | 0.00 | 0.00 | 59 | 1010.8 |
| 20260504221923 | 27 | 360 | 17.7 | 40.2 | 0.00 | 0.00 | 0.00 | 59 | 1010.8 |
| 20260504221824 | 27 | 360 | 17.7 | 40.2 | 0.00 | 0.00 | 0.00 | 59 | 1010.7 |
| 20260504221723 | 27 | 360 | 17.7 | 40.2 | 0.00 | 0.00 | 0.00 | 59 | 1010.7 |
| 20260504221628 | 27 | 360 | 17.7 | 40.2 | 0.00 | 0.00 | 0.00 | 59 | 1010.7 |
| 20260504221529 | 27 | 360 | 14.5 | 40.2 | 0.00 | 0.00 | 0.00 | 60 | 1010.7 |
| 20260504221430 | 27 | 360 | 14.5 | 40.2 | 0.00 | 0.00 | 0.00 | 59 | 1010.7 |
| 20260504221329 | 27 | 360 | 11.3 | 30.6 | 0.00 | 0.00 | 0.00 | 59 | 1010.7 |
| 20260504221230 | 27 | 360 | 11.3 | 30.6 | 0.00 | 0.00 | 0.00 | 59 | 1010.6 |
| 20260504221152 | 27 | 360 | 12.9 | 30.6 | 0.00 | 0.00 | 0.00 | 59 | 1010.7 |
| 20260504221032 | 27 | 360 | 12.9 | 30.6 | 0.00 | 0.00 | 0.00 | 59 | 1010.7 |
| 20260504220917 | 27 | 360 | 12.9 | 30.6 | 0.00 | 0.00 | 0.00 | 59 | 1010.7 |
| 20260504220816 | 27 | 360 | 11.3 | 29.0 | 0.00 | 0.00 | 0.00 | 61 | 1010.7 |
| 20260504220718 | 27 | 360 | 11.3 | 29.0 | 0.00 | 0.00 | 0.00 | 61 | 1010.7 |
| 20260504220618 | 27 | 360 | 12.9 | 29.0 | 0.00 | 0.00 | 0.00 | 61 | 1010.7 |
| 20260504220519 | 27 | 360 | 14.5 | 32.2 | 0.00 | 0.00 | 0.00 | 61 | 1010.7 |
| 20260504220419 | 27 | 360 | 14.5 | 32.2 | 0.00 | 0.00 | 0.00 | 61 | 1010.8 |
| 20260504220341 | 27 | 360 | 16.1 | 32.2 | 0.00 | 0.00 | 0.00 | 62 | 1010.7 |
| 20260504220225 | 27 | 360 | 16.1 | 32.2 | 0.00 | 0.00 | 0.00 | 61 | 1010.7 |
| 20260504220126 | 27 | 360 | 16.1 | 32.2 | 0.00 | 0.00 | 0.00 | 61 | 1010.7 |
| 20260504220027 | 27 | 360 | 16.1 | 32.2 | 0.00 | 0.00 | 0.00 | 61 | 1010.8 |
| 20260504215927 | 27 | 360 | 14.5 | 41.8 | 0.00 | 0.00 | 0.00 | 61 | 1010.8 |
| 20260504215828 | 27 | 360 | 14.5 | 41.8 | 0.00 | 0.00 | 0.00 | 61 | 1010.9 |
| 20260504215729 | 27 | 360 | 16.1 | 41.8 | 0.00 | 0.00 | 0.00 | 61 | 1010.8 |
| 20260504215632 | 27 | 360 | 14.5 | 41.8 | 0.00 | 0.00 | 0.00 | 60 | 1011.0 |
| 20260504215533 | 27 | 360 | 17.7 | 41.8 | 0.00 | 0.00 | 0.00 | 60 | 1011.0 |
| 20260504215433 | 27 | 360 | 16.1 | 41.8 | 0.00 | 0.00 | 0.00 | 60 | 1011.0 |
| 20260504215334 | 27 | 360 | 16.1 | 41.8 | 0.00 | 0.00 | 0.00 | 60 | 1011.0 |
| 20260504215233 | 27 | 360 | 16.1 | 41.8 | 0.00 | 0.00 | 0.00 | 59 | 1010.9 |
| 20260504215134 | 27 | 360 | 14.5 | 41.8 | 0.00 | 0.00 | 0.00 | 59 | 1010.8 |
| 20260504215033 | 27 | 360 | 12.9 | 33.8 | 0.00 | 0.00 | 0.00 | 60 | 1010.8 |
| 20260504214918 | 27 | 360 | 11.3 | 38.6 | 0.00 | 0.00 | 0.00 | 59 | 1010.8 |
| 20260504214818 | 27 | 360 | 11.3 | 38.6 | 0.00 | 0.00 | 0.00 | 59 | 1010.8 |
| 20260504214718 | 27 | 360 | 14.5 | 38.6 | 0.00 | 0.00 | 0.00 | 59 | 1010.8 |
| 20260504214638 | 27 | 360 | 12.9 | 41.8 | 0.00 | 0.00 | 0.00 | 59 | 1010.8 |
| 20260504214518 | 27 | 360 | 12.9 | 43.5 | 0.00 | 0.00 | 0.00 | 59 | 1010.8 |
| 20260504214418 | 27 | 360 | 16.1 | 43.5 | 0.00 | 0.00 | 0.00 | 61 | 1010.8 |
| 20260504214318 | 27 | 360 | 17.7 | 43.5 | 0.00 | 0.00 | 0.00 | 61 | 1010.8 |
| 20260504214223 | 27 | 360 | 16.1 | 43.5 | 0.00 | 0.00 | 0.00 | 61 | 1010.8 |
| 20260504214123 | 27 | 360 | 19.3 | 43.5 | 0.00 | 0.00 | 0.00 | 60 | 1010.9 |
| 20260504214044 | 27 | 360 | 24.1 | 43.5 | 0.00 | 0.00 | 0.00 | 60 | 1010.9 |
| 20260504213923 | 27 | 360 | 24.1 | 43.5 | 0.00 | 0.00 | 0.00 | 60 | 1011.0 |
| 20260504213823 | 27 | 360 | 22.5 | 43.5 | 0.00 | 0.00 | 0.00 | 60 | 1010.8 |
| 20260504213722 | 27 | 360 | 24.1 | 43.5 | 0.00 | 0.00 | 0.00 | 60 | 1010.9 |
| 20260504213622 | 27 | 360 | 22.5 | 41.8 | 0.00 | 0.00 | 0.00 | 60 | 1010.8 |
| 20260504213527 | 27 | 360 | 19.3 | 40.2 | 0.00 | 0.00 | 0.00 | 61 | 1010.8 |
| 20260504213427 | 27 | 360 | 19.3 | 40.2 | 0.00 | 0.00 | 0.00 | 60 | 1010.8 |
| 20260504213348 | 27 | 360 | 16.1 | 40.2 | 0.00 | 0.00 | 0.00 | 60 | 1010.9 |
| 20260504213227 | 27 | 360 | 12.9 | 37.0 | 0.00 | 0.00 | 0.00 | 61 | 1010.9 |
| 20260504213127 | 27 | 360 | 12.9 | 37.0 | 0.00 | 0.00 | 0.00 | 61 | 1010.8 |
| 20260504213027 | 27 | 360 | 11.3 | 37.0 | 0.00 | 0.00 | 0.00 | 61 | 1010.9 |
| 20260504212928 | 27 | 360 | 11.3 | 37.0 | 0.00 | 0.00 | 0.00 | 60 | 1011.0 |
| 20260504212833 | 27 | 360 | 14.5 | 37.0 | 0.00 | 0.00 | 0.00 | 61 | 1011.0 |
| 20260504212734 | 27 | 360 | 14.5 | 37.0 | 0.00 | 0.00 | 0.00 | 61 | 1011.0 |
| 20260504212634 | 27 | 360 | 17.7 | 37.0 | 0.00 | 0.00 | 0.00 | 61 | 1011.1 |
| 20260504212556 | 27 | 360 | 19.3 | 37.0 | 0.00 | 0.00 | 0.00 | 61 | 1011.1 |
| 20260504212436 | 27 | 360 | 19.3 | 37.0 | 0.00 | 0.00 | 0.00 | 61 | 1011.1 |
| 20260504212316 | 26 | 360 | 19.3 | 32.2 | 0.00 | 0.00 | 0.00 | 61 | 1011.0 |
| 20260504212217 | 26 | 360 | 19.3 | 32.2 | 0.00 | 0.00 | 0.00 | 61 | 1011.1 |
| 20260504212121 | 26 | 360 | 17.7 | 32.2 | 0.00 | 0.00 | 0.00 | 60 | 1011.2 |
| 20260504212023 | 27 | 360 | 16.1 | 32.2 | 0.00 | 0.00 | 0.00 | 61 | 1011.1 |
| 20260504211942 | 27 | 360 | 14.5 | 32.2 | 0.00 | 0.00 | 0.00 | 60 | 1011.1 |
| 20260504211816 | 27 | 360 | 14.5 | 32.2 | 0.00 | 0.00 | 0.00 | 60 | 1011.2 |
| 20260504211737 | 27 | 360 | 14.5 | 46.7 | 0.00 | 0.00 | 0.00 | 60 | 1011.2 |
| 20260504211616 | 27 | 360 | 14.5 | 46.7 | 0.00 | 0.00 | 0.00 | 60 | 1011.1 |
| 20260504211516 | 27 | 360 | 12.9 | 46.7 | 0.00 | 0.00 | 0.00 | 59 | 1011.2 |
| 20260504211420 | 27 | 360 | 9.7 | 46.7 | 0.00 | 0.00 | 0.00 | 60 | 1011.3 |
| 20260504211321 | 27 | 360 | 11.3 | 46.7 | 0.00 | 0.00 | 0.00 | 60 | 1011.3 |
| 20260504211220 | 27 | 360 | 12.9 | 46.7 | 0.00 | 0.00 | 0.00 | 60 | 1011.3 |
| 20260504211120 | 27 | 360 | 16.1 | 46.7 | 0.00 | 0.00 | 0.00 | 60 | 1011.3 |
| 20260504211021 | 27 | 360 | 19.3 | 46.7 | 0.00 | 0.00 | 0.00 | 59 | 1011.3 |
| 20260504210921 | 27 | 360 | 17.7 | 46.7 | 0.00 | 0.00 | 0.00 | 59 | 1011.3 |
| 20260504210822 | 27 | 360 | 16.1 | 35.4 | 0.00 | 0.00 | 0.00 | 60 | 1011.3 |
| 20260504210728 | 27 | 360 | 14.5 | 33.8 | 0.00 | 0.00 | 0.00 | 60 | 1011.3 |
| 20260504210629 | 27 | 360 | 12.9 | 33.8 | 0.00 | 0.00 | 0.00 | 59 | 1011.4 |
| 20260504210528 | 27 | 360 | 9.7 | 33.8 | 0.00 | 0.00 | 0.00 | 59 | 1011.4 |
| 20260504210428 | 27 | 360 | 11.3 | 33.8 | 0.00 | 0.00 | 0.00 | 59 | 1011.5 |
| 20260504210329 | 27 | 360 | 11.3 | 33.8 | 0.00 | 0.00 | 0.00 | 59 | 1011.4 |
| 20260504210229 | 27 | 360 | 12.9 | 33.8 | 0.00 | 0.00 | 0.00 | 59 | 1011.4 |
| 20260504210129 | 27 | 360 | 12.9 | 33.8 | 0.00 | 0.00 | 0.00 | 59 | 1011.6 |
| 20260504210035 | 27 | 360 | 14.5 | 33.8 | 0.00 | 0.00 | 0.00 | 60 | 1011.6 |
| 20260504205916 | 27 | 360 | 12.9 | 33.8 | 0.00 | 0.00 | 0.00 | 60 | 1011.5 |
| 20260504205817 | 27 | 360 | 11.3 | 30.6 | 0.00 | 0.00 | 0.00 | 60 | 1011.6 |
| 20260504205717 | 27 | 360 | 8.0 | 30.6 | 0.00 | 0.00 | 0.00 | 59 | 1011.6 |
| 20260504205617 | 27 | 360 | 6.4 | 30.6 | 0.00 | 0.00 | 0.00 | 61 | 1011.6 |
| 20260504205517 | 27 | 360 | 9.7 | 30.6 | 0.00 | 0.00 | 0.00 | 61 | 1011.6 |
| 20260504205421 | 27 | 242 | 11.3 | 30.6 | 0.00 | 0.00 | 0.00 | 63 | 1011.6 |
| 20260504205322 | 27 | 360 | 12.9 | 30.6 | 0.00 | 0.00 | 0.00 | 60 | 1011.6 |
| 20260504205242 | 27 | 360 | 12.9 | 38.6 | 0.00 | 0.00 | 0.00 | 60 | 1011.7 |
| 20260504205122 | 27 | 360 | 11.3 | 38.6 | 0.00 | 0.00 | 0.00 | 59 | 1011.6 |
| 20260504205044 | 27 | 360 | 9.7 | 38.6 | 0.00 | 0.00 | 0.00 | 58 | 1011.7 |
| 20260504204922 | 27 | 360 | 9.7 | 38.6 | 0.00 | 0.00 | 0.00 | 59 | 1011.7 |
| 20260504204823 | 27 | 360 | 9.7 | 38.6 | 0.00 | 0.00 | 0.00 | 59 | 1011.7 |
| 20260504204723 | 27 | 360 | 12.9 | 38.6 | 0.00 | 0.00 | 0.00 | 60 | 1011.6 |
| 20260504204628 | 27 | 360 | 16.1 | 38.6 | 0.00 | 0.00 | 0.00 | 61 | 1011.6 |
| 20260504204528 | 27 | 360 | 19.3 | 38.6 | 0.00 | 0.00 | 0.00 | 61 | 1011.7 |
| 20260504204429 | 27 | 360 | 20.9 | 37.0 | 0.00 | 0.00 | 0.00 | 60 | 1011.6 |
| 20260504204330 | 27 | 360 | 17.7 | 37.0 | 0.00 | 0.00 | 0.00 | 60 | 1011.6 |
| 20260504204230 | 27 | 360 | 14.5 | 30.6 | 0.00 | 0.00 | 0.00 | 60 | 1011.6 |
| 20260504204130 | 27 | 360 | 12.9 | 30.6 | 0.00 | 0.00 | 0.00 | 60 | 1011.7 |
| 20260504204034 | 27 | 360 | 14.5 | 30.6 | 0.00 | 0.00 | 0.00 | 60 | 1011.7 |
| 20260504203955 | 27 | 360 | 17.7 | 30.6 | 0.00 | 0.00 | 0.00 | 61 | 1011.8 |
| 20260504203834 | 27 | 360 | 19.3 | 32.2 | 0.00 | 0.00 | 0.00 | 61 | 1011.7 |
| 20260504203734 | 27 | 360 | 17.7 | 32.2 | 0.00 | 0.00 | 0.00 | 61 | 1011.7 |
| 20260504203635 | 27 | 360 | 17.7 | 32.2 | 0.00 | 0.00 | 0.00 | 60 | 1011.8 |
| 20260504203535 | 27 | 360 | 16.1 | 35.4 | 0.00 | 0.00 | 0.00 | 61 | 1011.8 |
| 20260504203436 | 27 | 360 | 16.1 | 35.4 | 0.00 | 0.00 | 0.00 | 61 | 1011.8 |
| 20260504203339 | 27 | 360 | 16.1 | 41.8 | 0.00 | 0.00 | 0.00 | 60 | 1012.0 |
| 20260504203219 | 27 | 360 | 16.1 | 41.8 | 0.00 | 0.00 | 0.00 | 60 | 1012.0 |
| 20260504203120 | 27 | 360 | 16.1 | 41.8 | 0.00 | 0.00 | 0.00 | 60 | 1012.0 |
| 20260504203021 | 27 | 360 | 17.7 | 41.8 | 0.00 | 0.00 | 0.00 | 60 | 1012.1 |
| 20260504202943 | 27 | 360 | 19.3 | 41.8 | 0.00 | 0.00 | 0.00 | 60 | 1012.1 |
| 20260504202823 | 27 | 360 | 19.3 | 41.8 | 0.00 | 0.00 | 0.00 | 60 | 1012.0 |
| 20260504202742 | 27 | 360 | 19.3 | 41.8 | 0.00 | 0.00 | 0.00 | 60 | 1012.0 |
| 20260504202622 | 27 | 360 | 17.7 | 41.8 | 0.00 | 0.00 | 0.00 | 60 | 1012.1 |
| 20260504202526 | 27 | 360 | 16.1 | 41.8 | 0.00 | 0.00 | 0.00 | 60 | 1012.1 |
| 20260504202446 | 27 | 360 | 12.9 | 41.8 | 0.00 | 0.00 | 0.00 | 60 | 1012.1 |
| 20260504202326 | 27 | 360 | 16.1 | 41.8 | 0.00 | 0.00 | 0.00 | 60 | 1012.1 |
| 20260504202227 | 27 | 360 | 19.3 | 41.8 | 0.00 | 0.00 | 0.00 | 60 | 1012.1 |
| 20260504202127 | 27 | 360 | 19.3 | 41.8 | 0.00 | 0.00 | 0.00 | 60 | 1012.2 |
| 20260504202048 | 27 | 360 | 17.7 | 41.8 | 0.00 | 0.00 | 0.00 | 60 | 1012.1 |
| 20260504201927 | 27 | 360 | 17.7 | 41.8 | 0.00 | 0.00 | 0.00 | 60 | 1012.3 |
| 20260504201831 | 27 | 360 | 12.9 | 37.0 | 0.00 | 0.00 | 0.00 | 60 | 1012.0 |
| 20260504201732 | 27 | 360 | 9.7 | 32.2 | 0.00 | 0.00 | 0.00 | 61 | 1012.2 |